Time,TemperatureF,DewpointF,PressureIn,WindDirection,WindDirectionDegrees,WindSpeedMPH,WindSpeedGustMPH,Humidity,HourlyPrecipIn,Conditions,Clouds,dailyrainin,SoftwareType,DateUTC
2013-04-29 00:01:00,57.3,55.3,29.83,SE,143,1.0,2.0,93,0.00,,,0.00,VWS V14.01,2013-04-29 07:01:00,
2013-04-29 00:02:00,57.3,55.3,29.83,SE,141,0.0,1.0,93,0.00,,,0.00,VWS V14.01,2013-04-29 07:02:00,
2013-04-29 00:03:00,57.3,55.3,29.83,SE,124,1.0,2.0,93,0.00,,,0.00,VWS V14.01,2013-04-29 07:03:00,
2013-04-29 00:04:00,57.3,55.3,29.83,SE,125,2.0,2.0,93,0.00,,,0.00,VWS V14.01,2013-04-29 07:04:00,
2013-04-29 00:09:00,57.3,55.3,29.83,ESE,102,3.0,3.0,93,0.00,,,0.00,VWS V14.01,2013-04-29 07:09:00,
2013-04-29 00:10:00,57.3,55.3,29.83,East,100,2.0,4.0,93,0.00,,,0.00,VWS V14.01,2013-04-29 07:10:00,
2013-04-29 00:12:00,57.3,55.3,29.83,ENE,65,2.0,3.0,93,0.00,,,0.00,VWS V14.01,2013-04-29 07:12:00,
2013-04-29 00:14:00,57.3,55.3,29.83,East,84,0.0,1.0,93,0.00,,,0.00,VWS V14.01,2013-04-29 07:14:00,
2013-04-29 00:15:00,57.3,55.3,29.83,East,83,0.0,0.0,93,0.00,,,0.00,VWS V14.01,2013-04-29 07:15:00,
2013-04-29 00:17:00,57.4,55.7,29.83,SE,125,1.0,2.0,94,0.00,,,0.00,VWS V14.01,2013-04-29 07:17:00,
2013-04-29 00:18:00,57.3,55.6,29.83,South,191,2.0,3.0,94,0.00,,,0.00,VWS V14.01,2013-04-29 07:18:00,
2013-04-29 00:19:00,57.3,55.3,29.83,SW,214,2.0,4.0,93,0.00,,,0.00,VWS V14.01,2013-04-29 07:19:00,
2013-04-29 00:20:00,57.3,55.3,29.83,SW,217,2.0,2.0,93,0.00,,,0.00,VWS V14.01,2013-04-29 07:20:00,
2013-04-29 00:22:00,57.2,55.2,29.83,SSW,197,2.0,2.0,93,0.00,,,0.00,VWS V14.01,2013-04-29 07:22:00,
2013-04-29 00:23:00,57.2,55.2,29.83,South,188,2.0,2.0,93,0.00,,,0.00,VWS V14.01,2013-04-29 07:23:00,
2013-04-29 00:27:00,57.2,55.2,29.83,SE,128,2.0,3.0,93,0.00,,,0.00,VWS V14.01,2013-04-29 07:27:00,
2013-04-29 00:28:00,57.2,55.5,29.83,ENE,76,3.0,4.0,94,0.00,,,0.00,VWS V14.01,2013-04-29 07:28:00,
2013-04-29 00:29:00,57.2,55.2,29.83,ESE,103,2.0,4.0,93,0.00,,,0.00,VWS V14.01,2013-04-29 07:29:00,
2013-04-29 00:30:00,57.1,55.1,29.83,SE,127,2.0,2.0,93,0.00,,,0.00,VWS V14.01,2013-04-29 07:30:00,
2013-04-29 00:32:00,57.1,55.1,29.83,SE,134,1.0,2.0,93,0.00,,,0.00,VWS V14.01,2013-04-29 07:32:00,
2013-04-29 00:34:00,57.0,55.0,29.83,East,101,1.0,1.0,93,0.00,,,0.00,VWS V14.01,2013-04-29 07:34:00,
2013-04-29 00:35:00,57.0,55.0,29.83,East,91,0.0,3.0,93,0.00,,,0.00,VWS V14.01,2013-04-29 07:35:00,
2013-04-29 00:36:00,57.0,55.0,29.83,East,91,0.0,1.0,93,0.00,,,0.00,VWS V14.01,2013-04-29 07:36:00,
2013-04-29 00:37:00,56.9,54.9,29.83,ESE,118,1.0,1.0,93,0.00,,,0.00,VWS V14.01,2013-04-29 07:37:00,
2013-04-29 00:38:00,57.0,55.0,29.83,SE,124,1.0,2.0,93,0.00,,,0.00,VWS V14.01,2013-04-29 07:38:00,
2013-04-29 00:40:00,57.0,55.3,29.83,East,86,2.0,3.0,94,0.00,,,0.00,VWS V14.01,2013-04-29 07:40:00,
2013-04-29 00:42:00,57.0,55.3,29.83,SSE,148,2.0,3.0,94,0.00,,,0.00,VWS V14.01,2013-04-29 07:42:00,
2013-04-29 00:44:00,57.0,55.3,29.83,East,98,3.0,3.0,94,0.00,,,0.00,VWS V14.01,2013-04-29 07:44:00,
2013-04-29 00:45:00,57.0,55.3,29.83,East,94,4.0,4.0,94,0.00,,,0.00,VWS V14.01,2013-04-29 07:45:00,
2013-04-29 00:46:00,56.9,55.2,29.83,ESE,110,3.0,4.0,94,0.00,,,0.00,VWS V14.01,2013-04-29 07:46:00,
2013-04-29 00:47:00,56.9,55.2,29.83,SE,124,2.0,3.0,94,0.00,,,0.00,VWS V14.01,2013-04-29 07:47:00,
2013-04-29 00:52:00,56.9,55.2,29.83,ESE,115,1.0,1.0,94,0.00,,,0.00,VWS V14.01,2013-04-29 07:52:00,
2013-04-29 00:53:00,56.9,55.2,29.83,East,94,1.0,2.0,94,0.00,,,0.00,VWS V14.01,2013-04-29 07:53:00,
2013-04-29 00:54:00,56.9,55.2,29.83,East,83,2.0,3.0,94,0.00,,,0.00,VWS V14.01,2013-04-29 07:54:00,
2013-04-29 00:57:00,56.9,55.2,29.83,ESE,111,1.0,2.0,94,0.00,,,0.00,VWS V14.01,2013-04-29 07:57:00,
2013-04-29 00:59:00,56.9,55.2,29.83,ESE,115,1.0,2.0,94,0.00,,,0.00,VWS V14.01,2013-04-29 07:59:00,
2013-04-29 01:00:00,56.9,55.2,29.83,ESE,103,1.0,2.0,94,0.00,,,0.00,VWS V14.01,2013-04-29 08:00:00,
2013-04-29 01:01:00,56.9,55.2,29.83,East,84,2.0,2.0,94,0.00,,,0.00,VWS V14.01,2013-04-29 08:01:00,
2013-04-29 01:03:00,57.0,55.3,29.83,ESE,112,1.0,1.0,94,0.00,,,0.00,VWS V14.01,2013-04-29 08:03:00,
2013-04-29 01:04:00,57.0,55.3,29.83,ESE,115,0.0,1.0,94,0.00,,,0.00,VWS V14.01,2013-04-29 08:04:00,
2013-04-29 01:05:00,57.0,55.3,29.83,ESE,103,2.0,2.0,94,0.00,,,0.00,VWS V14.01,2013-04-29 08:05:00,
2013-04-29 01:08:00,57.0,55.3,29.83,NE,53,5.0,6.0,94,0.00,,,0.00,VWS V14.01,2013-04-29 08:08:00,
2013-04-29 01:09:00,57.0,55.3,29.83,East,97,4.0,5.0,94,0.00,,,0.00,VWS V14.01,2013-04-29 08:09:00,
2013-04-29 01:10:00,57.0,55.3,29.83,SE,129,0.0,4.0,94,0.00,,,0.00,VWS V14.01,2013-04-29 08:10:00,
2013-04-29 01:11:00,57.0,55.3,29.83,SE,146,2.0,3.0,94,0.00,,,0.00,VWS V14.01,2013-04-29 08:11:00,
2013-04-29 01:13:00,57.0,55.3,29.83,SE,130,1.0,3.0,94,0.00,,,0.00,VWS V14.01,2013-04-29 08:13:00,
2013-04-29 01:14:00,57.0,55.3,29.83,East,94,2.0,2.0,94,0.00,,,0.00,VWS V14.01,2013-04-29 08:14:00,
2013-04-29 01:18:00,57.0,55.3,29.83,ESE,119,1.0,2.0,94,0.00,,,0.00,VWS V14.01,2013-04-29 08:18:00,
2013-04-29 01:19:00,56.9,55.2,29.83,SE,142,2.0,2.0,94,0.00,,,0.00,VWS V14.01,2013-04-29 08:19:00,
2013-04-29 01:20:00,56.9,55.2,29.83,ESE,117,4.0,4.0,94,0.00,,,0.00,VWS V14.01,2013-04-29 08:20:00,
2013-04-29 01:22:00,56.9,55.2,29.83,SE,133,2.0,2.0,94,0.00,,,0.00,VWS V14.01,2013-04-29 08:22:00,
2013-04-29 01:24:00,56.9,55.2,29.83,SE,145,2.0,6.0,94,0.00,,,0.00,VWS V14.01,2013-04-29 08:24:00,
2013-04-29 01:25:00,56.9,55.2,29.83,East,100,2.0,4.0,94,0.00,,,0.00,VWS V14.01,2013-04-29 08:25:00,
2013-04-29 01:27:00,56.8,55.1,29.83,East,96,4.0,6.0,94,0.00,,,0.00,VWS V14.01,2013-04-29 08:27:00,
2013-04-29 01:29:00,56.7,55.0,29.83,ESE,118,2.0,5.0,94,0.00,,,0.00,VWS V14.01,2013-04-29 08:29:00,
2013-04-29 01:31:00,56.7,55.0,29.83,SSE,162,2.0,5.0,94,0.00,,,0.00,VWS V14.01,2013-04-29 08:31:00,
2013-04-29 01:33:00,56.7,55.0,29.83,SE,136,4.0,4.0,94,0.00,,,0.00,VWS V14.01,2013-04-29 08:33:00,
2013-04-29 01:34:00,56.6,54.9,29.83,East,98,3.0,4.0,94,0.00,,,0.00,VWS V14.01,2013-04-29 08:34:00,
2013-04-29 01:35:00,56.6,54.9,29.83,South,176,4.0,6.0,94,0.00,,,0.00,VWS V14.01,2013-04-29 08:35:00,
2013-04-29 01:38:00,56.5,54.8,29.83,SE,124,1.0,3.0,94,0.00,,,0.00,VWS V14.01,2013-04-29 08:38:00,
2013-04-29 01:40:00,56.5,54.8,29.83,SE,145,1.0,6.0,94,0.00,,,0.00,VWS V14.01,2013-04-29 08:40:00,
2013-04-29 01:41:00,56.5,54.8,29.83,ESE,113,4.0,5.0,94,0.00,,,0.00,VWS V14.01,2013-04-29 08:41:00,
2013-04-29 01:42:00,56.5,54.8,29.83,SSE,148,1.0,3.0,94,0.00,,,0.00,VWS V14.01,2013-04-29 08:42:00,
2013-04-29 01:45:00,56.4,54.7,29.83,SE,124,3.0,4.0,94,0.00,,,0.00,VWS V14.01,2013-04-29 08:45:00,
2013-04-29 01:46:00,56.4,54.7,29.83,SE,129,1.0,3.0,94,0.00,,,0.00,VWS V14.01,2013-04-29 08:46:00,
2013-04-29 01:48:00,56.3,54.6,29.83,SSW,212,1.0,2.0,94,0.00,,,0.00,VWS V14.01,2013-04-29 08:48:00,
2013-04-29 01:50:00,56.3,54.6,29.83,South,190,0.0,2.0,94,0.00,,,0.00,VWS V14.01,2013-04-29 08:50:00,
2013-04-29 01:51:00,56.3,54.6,29.83,WSW,245,0.0,3.0,94,0.00,,,0.00,VWS V14.01,2013-04-29 08:51:00,
2013-04-29 01:52:00,56.3,54.9,29.83,WSW,250,1.0,1.0,95,0.00,,,0.00,VWS V14.01,2013-04-29 08:52:00,
2013-04-29 01:55:00,56.3,54.9,29.83,SE,127,2.0,4.0,95,0.00,,,0.00,VWS V14.01,2013-04-29 08:55:00,
2013-04-29 01:56:00,56.4,55.0,29.83,SE,125,3.0,3.0,95,0.00,,,0.00,VWS V14.01,2013-04-29 08:56:00,
2013-04-29 01:57:00,56.3,54.9,29.83,ESE,113,2.0,4.0,95,0.00,,,0.00,VWS V14.01,2013-04-29 08:57:00,
2013-04-29 02:01:00,56.3,54.6,29.83,ESE,118,2.0,4.0,94,0.00,,,0.00,VWS V14.01,2013-04-29 09:01:00,
2013-04-29 02:02:00,56.3,54.6,29.83,SE,136,3.0,6.0,94,0.00,,,0.00,VWS V14.01,2013-04-29 09:02:00,
2013-04-29 02:03:00,56.2,54.5,29.83,ESE,103,6.0,8.0,94,0.00,,,0.00,VWS V14.01,2013-04-29 09:03:00,
2013-04-29 02:05:00,56.1,54.4,29.83,East,100,5.0,6.0,94,0.00,,,0.00,VWS V14.01,2013-04-29 09:05:00,
2013-04-29 02:07:00,56.1,54.4,29.83,SE,139,2.0,5.0,94,0.00,,,0.00,VWS V14.01,2013-04-29 09:07:00,
2013-04-29 02:08:00,56.1,54.4,29.83,East,101,2.0,2.0,94,0.00,,,0.00,VWS V14.01,2013-04-29 09:08:00,
2013-04-29 02:11:00,56.1,54.7,29.83,ESE,102,2.0,4.0,95,0.00,,,0.00,VWS V14.01,2013-04-29 09:11:00,
2013-04-29 02:13:00,56.0,54.6,29.83,East,86,3.0,3.0,95,0.00,,,0.00,VWS V14.01,2013-04-29 09:13:00,
2013-04-29 02:15:00,56.0,54.6,29.82,East,94,2.0,3.0,95,0.00,,,0.00,VWS V14.01,2013-04-29 09:15:00,
2013-04-29 02:16:00,56.0,54.6,29.82,SE,143,2.0,4.0,95,0.00,,,0.00,VWS V14.01,2013-04-29 09:16:00,
2013-04-29 02:18:00,56.1,54.7,29.82,SE,124,2.0,3.0,95,0.00,,,0.00,VWS V14.01,2013-04-29 09:18:00,
2013-04-29 02:19:00,56.1,54.7,29.82,SE,125,2.0,2.0,95,0.00,,,0.00,VWS V14.01,2013-04-29 09:19:00,
2013-04-29 02:21:00,56.1,54.7,29.82,East,79,4.0,6.0,95,0.00,,,0.00,VWS V14.01,2013-04-29 09:21:00,
2013-04-29 02:23:00,56.1,54.7,29.82,SSE,167,3.0,6.0,95,0.00,,,0.00,VWS V14.01,2013-04-29 09:23:00,
2013-04-29 02:24:00,56.1,54.7,29.82,SE,145,3.0,3.0,95,0.00,,,0.00,VWS V14.01,2013-04-29 09:24:00,
2013-04-29 02:25:00,56.1,54.7,29.82,ESE,118,1.0,2.0,95,0.00,,,0.00,VWS V14.01,2013-04-29 09:25:00,
2013-04-29 02:26:00,56.2,54.8,29.82,ENE,72,2.0,2.0,95,0.00,,,0.00,VWS V14.01,2013-04-29 09:26:00,
2013-04-29 02:27:00,56.2,54.8,29.82,East,81,2.0,2.0,95,0.00,,,0.00,VWS V14.01,2013-04-29 09:27:00,
2013-04-29 02:28:00,56.2,54.8,29.82,ENE,73,1.0,1.0,95,0.00,,,0.00,VWS V14.01,2013-04-29 09:28:00,
2013-04-29 02:30:00,56.2,54.8,29.82,SE,132,2.0,2.0,95,0.00,,,0.00,VWS V14.01,2013-04-29 09:30:00,
2013-04-29 02:32:00,56.2,54.8,29.82,ESE,113,0.0,1.0,95,0.00,,,0.00,VWS V14.01,2013-04-29 09:32:00,
2013-04-29 02:34:00,56.3,54.9,29.82,SE,131,4.0,4.0,95,0.00,,,0.00,VWS V14.01,2013-04-29 09:34:00,
2013-04-29 02:35:00,56.2,54.8,29.82,South,187,1.0,2.0,95,0.00,,,0.00,VWS V14.01,2013-04-29 09:35:00,
2013-04-29 02:37:00,56.2,54.8,29.82,ESE,118,3.0,4.0,95,0.00,,,0.00,VWS V14.01,2013-04-29 09:37:00,
2013-04-29 02:40:00,56.2,54.8,29.82,East,90,4.0,5.0,95,0.00,,,0.00,VWS V14.01,2013-04-29 09:40:00,
2013-04-29 02:41:00,56.1,54.7,29.82,East,94,2.0,3.0,95,0.00,,,0.00,VWS V14.01,2013-04-29 09:41:00,
2013-04-29 02:42:00,56.1,54.7,29.82,East,86,4.0,4.0,95,0.00,,,0.00,VWS V14.01,2013-04-29 09:42:00,
2013-04-29 02:44:00,56.2,54.8,29.82,ENE,71,2.0,3.0,95,0.00,,,0.00,VWS V14.01,2013-04-29 09:44:00,
2013-04-29 02:45:00,56.2,54.8,29.82,SE,131,4.0,5.0,95,0.00,,,0.00,VWS V14.01,2013-04-29 09:45:00,
2013-04-29 02:47:00,56.2,54.8,29.82,ESE,113,3.0,3.0,95,0.00,,,0.00,VWS V14.01,2013-04-29 09:47:00,
2013-04-29 02:49:00,56.2,54.8,29.82,East,101,2.0,4.0,95,0.00,,,0.00,VWS V14.01,2013-04-29 09:49:00,
2013-04-29 02:52:00,56.2,54.8,29.82,SSE,162,0.0,2.0,95,0.00,,,0.00,VWS V14.01,2013-04-29 09:52:00,
2013-04-29 02:53:00,56.2,54.8,29.82,ESE,110,1.0,2.0,95,0.00,,,0.00,VWS V14.01,2013-04-29 09:53:00,
2013-04-29 02:55:00,56.3,54.9,29.82,ENE,76,1.0,2.0,95,0.00,,,0.00,VWS V14.01,2013-04-29 09:55:00,
2013-04-29 02:57:00,56.3,54.9,29.82,SSE,152,0.0,2.0,95,0.00,,,0.00,VWS V14.01,2013-04-29 09:57:00,
2013-04-29 03:00:00,56.3,54.9,29.82,East,95,6.0,6.0,95,0.00,,,0.00,VWS V14.01,2013-04-29 10:00:00,
2013-04-29 03:02:00,56.2,54.8,29.81,ESE,122,2.0,3.0,95,0.00,,,0.00,VWS V14.01,2013-04-29 10:02:00,
2013-04-29 03:03:00,56.2,54.8,29.82,East,98,2.0,2.0,95,0.00,,,0.00,VWS V14.01,2013-04-29 10:03:00,
2013-04-29 03:05:00,56.2,54.8,29.82,ESE,113,4.0,4.0,95,0.00,,,0.00,VWS V14.01,2013-04-29 10:05:00,
2013-04-29 03:08:00,56.2,54.8,29.81,ESE,105,2.0,5.0,95,0.00,,,0.00,VWS V14.01,2013-04-29 10:08:00,
2013-04-29 03:11:00,56.1,54.7,29.81,East,86,3.0,5.0,95,0.00,,,0.00,VWS V14.01,2013-04-29 10:11:00,
2013-04-29 03:13:00,56.1,54.7,29.81,ESE,115,3.0,3.0,95,0.00,,,0.00,VWS V14.01,2013-04-29 10:13:00,
2013-04-29 03:14:00,56.1,54.7,29.81,East,80,4.0,4.0,95,0.00,,,0.00,VWS V14.01,2013-04-29 10:14:00,
2013-04-29 03:15:00,56.1,54.7,29.81,East,83,3.0,5.0,95,0.00,,,0.00,VWS V14.01,2013-04-29 10:15:00,
2013-04-29 03:17:00,56.1,54.7,29.81,East,83,1.0,1.0,95,0.00,,,0.00,VWS V14.01,2013-04-29 10:17:00,
2013-04-29 03:19:00,56.1,54.7,29.81,ESE,117,2.0,2.0,95,0.00,,,0.00,VWS V14.01,2013-04-29 10:19:00,
2013-04-29 03:20:00,56.1,54.7,29.81,ESE,108,2.0,2.0,95,0.00,,,0.00,VWS V14.01,2013-04-29 10:20:00,
2013-04-29 03:22:00,56.1,54.7,29.81,ENE,77,5.0,5.0,95,0.00,,,0.00,VWS V14.01,2013-04-29 10:22:00,
2013-04-29 03:24:00,56.1,54.7,29.81,ESE,110,4.0,6.0,95,0.00,,,0.00,VWS V14.01,2013-04-29 10:24:00,
2013-04-29 03:27:00,56.1,54.7,29.81,ESE,115,2.0,2.0,95,0.00,,,0.00,VWS V14.01,2013-04-29 10:27:00,
2013-04-29 03:30:00,56.1,54.7,29.81,ESE,105,2.0,2.0,95,0.00,,,0.00,VWS V14.01,2013-04-29 10:30:00,
2013-04-29 03:31:00,56.1,54.7,29.81,ESE,107,5.0,6.0,95,0.00,,,0.00,VWS V14.01,2013-04-29 10:31:00,
2013-04-29 03:34:00,56.1,54.7,29.81,SE,124,3.0,4.0,95,0.00,,,0.00,VWS V14.01,2013-04-29 10:34:00,
2013-04-29 03:37:00,56.1,54.7,29.81,NE,53,2.0,2.0,95,0.00,,,0.00,VWS V14.01,2013-04-29 10:37:00,
2013-04-29 03:38:00,56.1,54.7,29.81,ESE,108,2.0,2.0,95,0.00,,,0.00,VWS V14.01,2013-04-29 10:38:00,
2013-04-29 03:39:00,56.1,54.7,29.81,ENE,73,4.0,4.0,95,0.00,,,0.00,VWS V14.01,2013-04-29 10:39:00,
2013-04-29 03:41:00,56.1,54.7,29.80,ESE,110,2.0,6.0,95,0.00,,,0.00,VWS V14.01,2013-04-29 10:41:00,
2013-04-29 03:43:00,56.1,54.7,29.81,ESE,121,3.0,4.0,95,0.00,,,0.00,VWS V14.01,2013-04-29 10:43:00,
2013-04-29 03:44:00,56.1,54.7,29.81,ESE,123,4.0,6.0,95,0.00,,,0.00,VWS V14.01,2013-04-29 10:44:00,
2013-04-29 03:45:00,56.1,54.4,29.81,SSE,150,5.0,8.0,94,0.00,,,0.00,VWS V14.01,2013-04-29 10:45:00,
2013-04-29 03:46:00,56.1,54.4,29.81,ESE,108,1.0,2.0,94,0.00,,,0.00,VWS V14.01,2013-04-29 10:46:00,
2013-04-29 03:48:00,56.0,54.3,29.81,SE,138,4.0,4.0,94,0.00,,,0.00,VWS V14.01,2013-04-29 10:48:00,
2013-04-29 03:49:00,56.0,54.3,29.81,ESE,118,2.0,4.0,94,0.00,,,0.00,VWS V14.01,2013-04-29 10:49:00,
2013-04-29 03:50:00,56.0,54.3,29.81,ESE,118,2.0,2.0,94,0.00,,,0.00,VWS V14.01,2013-04-29 10:50:00,
2013-04-29 03:53:00,56.0,54.3,29.81,SE,128,1.0,4.0,94,0.00,,,0.00,VWS V14.01,2013-04-29 10:53:00,
2013-04-29 03:54:00,56.0,54.3,29.81,ESE,110,0.0,2.0,94,0.00,,,0.00,VWS V14.01,2013-04-29 10:54:00,
2013-04-29 03:55:00,56.0,54.3,29.81,SSE,160,2.0,3.0,94,0.00,,,0.00,VWS V14.01,2013-04-29 10:55:00,
2013-04-29 03:57:00,56.0,54.3,29.81,SE,134,2.0,4.0,94,0.00,,,0.00,VWS V14.01,2013-04-29 10:57:00,
2013-04-29 03:59:00,56.0,54.3,29.81,ESE,106,3.0,4.0,94,0.00,,,0.00,VWS V14.01,2013-04-29 10:59:00,
2013-04-29 04:00:00,56.0,54.3,29.81,SE,145,1.0,3.0,94,0.00,,,0.00,VWS V14.01,2013-04-29 11:00:00,
2013-04-29 04:01:00,56.0,54.3,29.81,ESE,104,3.0,4.0,94,0.00,,,0.00,VWS V14.01,2013-04-29 11:01:00,
2013-04-29 04:04:00,56.0,54.3,29.81,NE,51,2.0,3.0,94,0.00,,,0.00,VWS V14.01,2013-04-29 11:04:00,
2013-04-29 04:05:00,56.0,54.3,29.81,ESE,115,3.0,4.0,94,0.00,,,0.00,VWS V14.01,2013-04-29 11:05:00,
2013-04-29 04:06:00,55.9,54.2,29.81,East,80,1.0,3.0,94,0.00,,,0.00,VWS V14.01,2013-04-29 11:06:00,
2013-04-29 04:09:00,55.9,54.2,29.81,East,91,2.0,2.0,94,0.00,,,0.00,VWS V14.01,2013-04-29 11:09:00,
2013-04-29 04:10:00,55.9,54.5,29.81,SE,141,1.0,3.0,95,0.00,,,0.00,VWS V14.01,2013-04-29 11:10:00,
2013-04-29 04:11:00,56.0,54.6,29.81,ESE,118,2.0,3.0,95,0.00,,,0.00,VWS V14.01,2013-04-29 11:11:00,
2013-04-29 04:12:00,56.0,54.6,29.81,SSE,160,3.0,4.0,95,0.00,,,0.00,VWS V14.01,2013-04-29 11:12:00,
2013-04-29 04:14:00,56.0,54.3,29.81,SE,146,1.0,1.0,94,0.00,,,0.00,VWS V14.01,2013-04-29 11:14:00,
2013-04-29 04:15:00,56.0,54.6,29.81,ESE,108,1.0,1.0,95,0.00,,,0.00,VWS V14.01,2013-04-29 11:15:00,
2013-04-29 04:17:00,56.0,54.6,29.81,SE,125,2.0,2.0,95,0.00,,,0.00,VWS V14.01,2013-04-29 11:17:00,
2013-04-29 04:20:00,56.1,54.7,29.81,East,96,0.0,1.0,95,0.00,,,0.00,VWS V14.01,2013-04-29 11:20:00,
2013-04-29 04:21:00,56.1,54.7,29.81,SE,134,1.0,1.0,95,0.00,,,0.00,VWS V14.01,2013-04-29 11:21:00,
2013-04-29 04:22:00,56.1,54.7,29.81,ESE,122,0.0,0.0,95,0.00,,,0.00,VWS V14.01,2013-04-29 11:22:00,
2013-04-29 04:23:00,56.2,54.8,29.81,ESE,115,0.0,0.0,95,0.00,,,0.00,VWS V14.01,2013-04-29 11:23:00,
2013-04-29 04:25:00,56.2,54.8,29.81,East,94,0.0,0.0,95,0.00,,,0.00,VWS V14.01,2013-04-29 11:25:00,
2013-04-29 04:26:00,56.2,54.8,29.81,SE,131,0.0,0.0,95,0.00,,,0.00,VWS V14.01,2013-04-29 11:26:00,
2013-04-29 04:27:00,56.2,54.8,29.81,SE,145,0.0,0.0,95,0.00,,,0.00,VWS V14.01,2013-04-29 11:27:00,
2013-04-29 04:30:00,56.1,54.4,29.81,East,93,0.0,1.0,94,0.00,,,0.00,VWS V14.01,2013-04-29 11:30:00,
2013-04-29 04:33:00,56.1,54.7,29.81,ESE,103,3.0,4.0,95,0.00,,,0.00,VWS V14.01,2013-04-29 11:33:00,
2013-04-29 04:35:00,56.2,54.8,29.81,SE,141,1.0,3.0,95,0.00,,,0.00,VWS V14.01,2013-04-29 11:35:00,
2013-04-29 04:36:00,56.2,54.8,29.81,SE,126,1.0,3.0,95,0.00,,,0.00,VWS V14.01,2013-04-29 11:36:00,
2013-04-29 04:37:00,56.2,54.5,29.81,SSE,157,1.0,2.0,94,0.00,,,0.00,VWS V14.01,2013-04-29 11:37:00,
2013-04-29 04:39:00,56.2,54.8,29.81,East,94,1.0,4.0,95,0.00,,,0.00,VWS V14.01,2013-04-29 11:39:00,
2013-04-29 04:40:00,56.2,54.8,29.81,ESE,103,2.0,3.0,95,0.00,,,0.00,VWS V14.01,2013-04-29 11:40:00,
2013-04-29 04:41:00,56.2,54.5,29.81,East,97,2.0,4.0,94,0.00,,,0.00,VWS V14.01,2013-04-29 11:41:00,
2013-04-29 04:42:00,56.2,54.5,29.81,East,96,2.0,4.0,94,0.00,,,0.00,VWS V14.01,2013-04-29 11:42:00,
2013-04-29 04:44:00,56.1,54.4,29.81,East,86,2.0,3.0,94,0.00,,,0.00,VWS V14.01,2013-04-29 11:44:00,
2013-04-29 04:46:00,56.1,54.7,29.81,SE,128,2.0,4.0,95,0.00,,,0.00,VWS V14.01,2013-04-29 11:46:00,
2013-04-29 04:47:00,56.2,54.8,29.81,SSE,152,1.0,3.0,95,0.00,,,0.00,VWS V14.01,2013-04-29 11:47:00,
2013-04-29 04:49:00,56.2,54.5,29.81,SE,146,3.0,4.0,94,0.00,,,0.00,VWS V14.01,2013-04-29 11:49:00,
2013-04-29 04:53:00,56.1,54.4,29.81,SE,143,2.0,3.0,94,0.00,,,0.00,VWS V14.01,2013-04-29 11:53:00,
2013-04-29 04:54:00,56.2,54.8,29.81,SE,146,2.0,3.0,95,0.00,,,0.00,VWS V14.01,2013-04-29 11:54:00,
2013-04-29 04:55:00,56.1,54.4,29.81,SE,127,1.0,2.0,94,0.00,,,0.00,VWS V14.01,2013-04-29 11:55:00,
2013-04-29 04:58:00,56.2,54.8,29.81,ESE,118,2.0,3.0,95,0.00,,,0.00,VWS V14.01,2013-04-29 11:58:00,
2013-04-29 05:00:00,56.1,54.4,29.81,SSE,163,1.0,4.0,94,0.00,,,0.00,VWS V14.01,2013-04-29 12:00:00,
2013-04-29 05:01:00,56.1,54.4,29.81,SE,141,1.0,3.0,94,0.00,,,0.00,VWS V14.01,2013-04-29 12:01:00,
2013-04-29 05:02:00,56.1,54.4,29.81,ESE,116,3.0,3.0,94,0.00,,,0.00,VWS V14.01,2013-04-29 12:02:00,
2013-04-29 05:03:00,56.1,54.4,29.81,ESE,115,4.0,4.0,94,0.00,,,0.00,VWS V14.01,2013-04-29 12:03:00,
2013-04-29 05:04:00,56.1,54.4,29.81,SE,128,3.0,4.0,94,0.00,,,0.00,VWS V14.01,2013-04-29 12:04:00,
2013-04-29 05:06:00,56.0,54.3,29.81,ESE,110,3.0,4.0,94,0.00,,,0.00,VWS V14.01,2013-04-29 12:06:00,
2013-04-29 05:07:00,56.0,54.3,29.81,SE,131,0.0,4.0,94,0.00,,,0.00,VWS V14.01,2013-04-29 12:07:00,
2013-04-29 05:08:00,56.0,54.3,29.81,ESE,121,2.0,3.0,94,0.00,,,0.00,VWS V14.01,2013-04-29 12:08:00,
2013-04-29 05:10:00,55.9,54.2,29.81,SE,131,2.0,2.0,94,0.00,,,0.00,VWS V14.01,2013-04-29 12:10:00,
2013-04-29 05:11:00,56.0,54.3,29.81,SE,131,2.0,2.0,94,0.00,,,0.00,VWS V14.01,2013-04-29 12:11:00,
2013-04-29 05:13:00,56.0,54.3,29.81,ESE,118,5.0,5.0,94,0.00,,,0.00,VWS V14.01,2013-04-29 12:13:00,
2013-04-29 05:14:00,56.0,54.3,29.81,East,94,4.0,5.0,94,0.00,,,0.00,VWS V14.01,2013-04-29 12:14:00,
2013-04-29 05:15:00,56.0,54.3,29.81,East,98,3.0,4.0,94,0.00,,,0.00,VWS V14.01,2013-04-29 12:15:00,
2013-04-29 05:19:00,56.0,54.3,29.81,ENE,75,3.0,4.0,94,0.00,,,0.00,VWS V14.01,2013-04-29 12:19:00,
2013-04-29 05:20:00,56.0,54.3,29.81,East,84,2.0,4.0,94,0.00,,,0.00,VWS V14.01,2013-04-29 12:20:00,
2013-04-29 05:21:00,56.0,54.3,29.81,East,80,1.0,2.0,94,0.00,,,0.00,VWS V14.01,2013-04-29 12:21:00,
2013-04-29 05:25:00,56.1,54.4,29.81,SSE,160,1.0,3.0,94,0.00,,,0.00,VWS V14.01,2013-04-29 12:25:00,
2013-04-29 05:26:00,56.1,54.4,29.81,SE,124,2.0,3.0,94,0.00,,,0.00,VWS V14.01,2013-04-29 12:26:00,
2013-04-29 05:30:00,56.0,54.3,29.81,SSE,156,2.0,2.0,94,0.00,,,0.00,VWS V14.01,2013-04-29 12:30:00,
2013-04-29 05:31:00,56.0,54.3,29.81,SE,140,1.0,3.0,94,0.00,,,0.00,VWS V14.01,2013-04-29 12:31:00,
2013-04-29 05:32:00,56.0,54.3,29.81,SE,125,2.0,2.0,94,0.00,,,0.00,VWS V14.01,2013-04-29 12:32:00,
2013-04-29 05:33:00,56.0,54.3,29.81,SE,127,2.0,2.0,94,0.00,,,0.00,VWS V14.01,2013-04-29 12:33:00,
2013-04-29 05:35:00,56.0,54.3,29.81,East,91,2.0,5.0,94,0.00,,,0.00,VWS V14.01,2013-04-29 12:35:00,
2013-04-29 05:37:00,56.0,54.3,29.81,ESE,121,3.0,5.0,94,0.00,,,0.00,VWS V14.01,2013-04-29 12:37:00,
2013-04-29 05:39:00,56.0,54.3,29.81,East,84,2.0,4.0,94,0.00,,,0.00,VWS V14.01,2013-04-29 12:39:00,
2013-04-29 05:41:00,56.0,54.3,29.81,ESE,113,3.0,5.0,94,0.00,,,0.00,VWS V14.01,2013-04-29 12:41:00,
2013-04-29 05:43:00,55.9,54.2,29.81,SE,138,3.0,4.0,94,0.00,,,0.00,VWS V14.01,2013-04-29 12:43:00,
2013-04-29 05:44:00,55.9,54.2,29.81,East,90,3.0,3.0,94,0.00,,,0.00,VWS V14.01,2013-04-29 12:44:00,
2013-04-29 05:45:00,55.9,54.2,29.81,ESE,117,3.0,4.0,94,0.00,,,0.00,VWS V14.01,2013-04-29 12:45:00,
2013-04-29 05:48:00,55.9,54.2,29.81,ESE,115,3.0,5.0,94,0.00,,,0.00,VWS V14.01,2013-04-29 12:48:00,
2013-04-29 05:49:00,55.9,54.2,29.81,ESE,113,3.0,4.0,94,0.00,,,0.00,VWS V14.01,2013-04-29 12:49:00,
2013-04-29 05:50:00,55.9,54.2,29.81,SE,127,4.0,5.0,94,0.00,,,0.00,VWS V14.01,2013-04-29 12:50:00,
2013-04-29 05:54:00,55.9,54.2,29.81,ESE,117,3.0,5.0,94,0.00,,,0.00,VWS V14.01,2013-04-29 12:54:00,
2013-04-29 05:55:00,55.9,54.2,29.81,ESE,108,2.0,4.0,94,0.00,,,0.00,VWS V14.01,2013-04-29 12:55:00,
2013-04-29 05:56:00,55.9,54.2,29.81,ESE,111,1.0,3.0,94,0.00,,,0.00,VWS V14.01,2013-04-29 12:56:00,
2013-04-29 06:00:00,55.9,54.2,29.81,ENE,69,2.0,4.0,94,0.00,,,0.00,VWS V14.01,2013-04-29 13:00:00,
2013-04-29 06:01:00,55.9,54.2,29.81,East,80,5.0,6.0,94,0.00,,,0.00,VWS V14.01,2013-04-29 13:01:00,
2013-04-29 06:02:00,55.9,54.2,29.81,East,88,5.0,6.0,94,0.00,,,0.00,VWS V14.01,2013-04-29 13:02:00,
2013-04-29 06:03:00,55.9,54.2,29.81,East,95,2.0,5.0,94,0.00,,,0.00,VWS V14.01,2013-04-29 13:03:00,
2013-04-29 06:05:00,56.0,54.3,29.81,SSE,155,2.0,4.0,94,0.00,,,0.00,VWS V14.01,2013-04-29 13:05:00,
2013-04-29 06:08:00,56.0,54.3,29.81,ENE,72,1.0,3.0,94,0.00,,,0.00,VWS V14.01,2013-04-29 13:08:00,
2013-04-29 06:09:00,56.0,54.3,29.81,SE,128,2.0,2.0,94,0.00,,,0.00,VWS V14.01,2013-04-29 13:09:00,
2013-04-29 06:10:00,56.0,54.3,29.81,SE,140,1.0,2.0,94,0.00,,,0.00,VWS V14.01,2013-04-29 13:10:00,
2013-04-29 06:11:00,56.0,54.3,29.81,ESE,114,3.0,5.0,94,0.00,,,0.00,VWS V14.01,2013-04-29 13:11:00,
2013-04-29 06:15:00,56.0,54.3,29.81,SE,136,3.0,4.0,94,0.00,,,0.00,VWS V14.01,2013-04-29 13:15:00,
2013-04-29 06:16:00,56.0,54.3,29.81,SE,134,0.0,3.0,94,0.00,,,0.00,VWS V14.01,2013-04-29 13:16:00,
2013-04-29 06:18:00,56.0,54.3,29.82,SSE,167,1.0,3.0,94,0.00,,,0.00,VWS V14.01,2013-04-29 13:18:00,
2013-04-29 06:20:00,56.1,54.4,29.82,SE,131,3.0,4.0,94,0.00,,,0.00,VWS V14.01,2013-04-29 13:20:00,
2013-04-29 06:21:00,56.1,54.4,29.82,SE,125,2.0,3.0,94,0.00,,,0.00,VWS V14.01,2013-04-29 13:21:00,
2013-04-29 06:24:00,56.2,54.5,29.82,ESE,115,2.0,4.0,94,0.00,,,0.00,VWS V14.01,2013-04-29 13:24:00,
2013-04-29 06:25:00,56.1,54.4,29.82,SE,131,2.0,5.0,94,0.00,,,0.00,VWS V14.01,2013-04-29 13:25:00,
2013-04-29 06:26:00,56.1,54.4,29.82,ESE,115,3.0,3.0,94,0.00,,,0.00,VWS V14.01,2013-04-29 13:26:00,
2013-04-29 06:27:00,56.2,54.5,29.82,SE,130,2.0,6.0,94,0.00,,,0.00,VWS V14.01,2013-04-29 13:27:00,
2013-04-29 06:31:00,56.1,54.4,29.82,SE,127,4.0,5.0,94,0.00,,,0.00,VWS V14.01,2013-04-29 13:31:00,
2013-04-29 06:32:00,56.1,54.4,29.82,SSE,160,2.0,4.0,94,0.00,,,0.00,VWS V14.01,2013-04-29 13:32:00,
2013-04-29 06:33:00,56.1,54.4,29.82,SSW,203,2.0,2.0,94,0.00,,,0.00,VWS V14.01,2013-04-29 13:33:00,
2013-04-29 06:37:00,56.1,54.4,29.82,SSW,198,1.0,2.0,94,0.00,,,0.00,VWS V14.01,2013-04-29 13:37:00,
2013-04-29 06:38:00,56.1,54.4,29.82,SSW,193,1.0,1.0,94,0.00,,,0.00,VWS V14.01,2013-04-29 13:38:00,
2013-04-29 06:39:00,56.2,54.5,29.82,ESE,122,1.0,1.0,94,0.00,,,0.00,VWS V14.01,2013-04-29 13:39:00,
2013-04-29 06:43:00,56.2,54.5,29.82,SE,134,3.0,3.0,94,0.00,,,0.00,VWS V14.01,2013-04-29 13:43:00,
2013-04-29 06:44:00,56.3,54.6,29.82,ESE,120,1.0,3.0,94,0.00,,,0.00,VWS V14.01,2013-04-29 13:44:00,
2013-04-29 06:48:00,56.3,54.6,29.82,SE,144,0.0,0.0,94,0.00,,,0.00,VWS V14.01,2013-04-29 13:48:00,
2013-04-29 06:49:00,56.3,54.6,29.82,East,96,5.0,5.0,94,0.00,,,0.00,VWS V14.01,2013-04-29 13:49:00,
2013-04-29 06:50:00,56.3,54.3,29.82,ESE,107,2.0,6.0,93,0.00,,,0.00,VWS V14.01,2013-04-29 13:50:00,
2013-04-29 06:52:00,56.3,54.3,29.82,ENE,70,5.0,5.0,93,0.00,,,0.00,VWS V14.01,2013-04-29 13:52:00,
2013-04-29 06:54:00,56.3,54.6,29.82,ESE,121,1.0,3.0,94,0.00,,,0.00,VWS V14.01,2013-04-29 13:54:00,
2013-04-29 06:56:00,56.3,54.3,29.82,SE,146,1.0,4.0,93,0.00,,,0.00,VWS V14.01,2013-04-29 13:56:00,
2013-04-29 06:58:00,56.3,54.3,29.83,ESE,118,1.0,3.0,93,0.00,,,0.00,VWS V14.01,2013-04-29 13:58:00,
2013-04-29 06:59:00,56.3,54.3,29.83,ESE,118,1.0,2.0,93,0.00,,,0.00,VWS V14.01,2013-04-29 13:59:00,
2013-04-29 07:00:00,56.3,54.3,29.83,SE,146,2.0,3.0,93,0.00,,,0.00,VWS V14.01,2013-04-29 14:00:00,
2013-04-29 07:02:00,56.4,54.4,29.83,ENE,69,2.0,3.0,93,0.00,,,0.00,VWS V14.01,2013-04-29 14:02:00,
2013-04-29 07:03:00,56.4,54.4,29.83,ESE,121,2.0,3.0,93,0.00,,,0.00,VWS V14.01,2013-04-29 14:03:00,
2013-04-29 07:05:00,56.4,54.4,29.83,ESE,107,3.0,4.0,93,0.00,,,0.00,VWS V14.01,2013-04-29 14:05:00,
2013-04-29 07:07:00,56.4,54.4,29.83,ENE,76,3.0,4.0,93,0.00,,,0.00,VWS V14.01,2013-04-29 14:07:00,
2013-04-29 07:08:00,56.3,54.3,29.83,SE,131,1.0,4.0,93,0.00,,,0.00,VWS V14.01,2013-04-29 14:08:00,
2013-04-29 07:10:00,56.4,54.4,29.83,SE,136,3.0,3.0,93,0.00,,,0.00,VWS V14.01,2013-04-29 14:10:00,
2013-04-29 07:14:00,56.4,54.4,29.83,SE,125,2.0,3.0,93,0.00,,,0.00,VWS V14.01,2013-04-29 14:14:00,
2013-04-29 07:15:00,56.4,54.4,29.83,ESE,120,1.0,2.0,93,0.00,,,0.00,VWS V14.01,2013-04-29 14:15:00,
2013-04-29 07:17:00,56.4,54.4,29.83,ESE,121,3.0,3.0,93,0.00,,,0.00,VWS V14.01,2013-04-29 14:17:00,
2013-04-29 07:19:00,56.4,54.4,29.83,ESE,118,1.0,1.0,93,0.00,,,0.00,VWS V14.01,2013-04-29 14:19:00,
2013-04-29 07:20:00,56.4,54.4,29.83,East,88,2.0,2.0,93,0.00,,,0.00,VWS V14.01,2013-04-29 14:20:00,
2013-04-29 07:21:00,56.4,54.4,29.83,East,84,0.0,2.0,93,0.00,,,0.00,VWS V14.01,2013-04-29 14:21:00,
2013-04-29 07:22:00,56.5,54.5,29.83,ENE,61,2.0,2.0,93,0.00,,,0.00,VWS V14.01,2013-04-29 14:22:00,
2013-04-29 07:25:00,56.4,54.4,29.83,East,91,2.0,4.0,93,0.00,,,0.00,VWS V14.01,2013-04-29 14:25:00,
2013-04-29 07:26:00,56.4,54.4,29.83,ESE,105,1.0,3.0,93,0.00,,,0.00,VWS V14.01,2013-04-29 14:26:00,
2013-04-29 07:29:00,56.5,54.5,29.83,ESE,120,2.0,2.0,93,0.00,,,0.00,VWS V14.01,2013-04-29 14:29:00,
2013-04-29 07:31:00,56.5,54.5,29.83,SE,143,2.0,3.0,93,0.00,,,0.00,VWS V14.01,2013-04-29 14:31:00,
2013-04-29 07:32:00,56.6,54.6,29.83,SE,127,3.0,3.0,93,0.00,,,0.00,VWS V14.01,2013-04-29 14:32:00,
2013-04-29 07:33:00,56.6,54.6,29.83,SE,141,2.0,3.0,93,0.00,,,0.00,VWS V14.01,2013-04-29 14:33:00,
2013-04-29 07:36:00,56.6,54.6,29.83,ESE,108,2.0,4.0,93,0.00,,,0.00,VWS V14.01,2013-04-29 14:36:00,
2013-04-29 07:38:00,56.6,54.3,29.83,ESE,115,2.0,4.0,92,0.00,,,0.00,VWS V14.01,2013-04-29 14:38:00,
2013-04-29 07:41:00,56.6,54.6,29.83,SSW,212,1.0,1.0,93,0.00,,,0.00,VWS V14.01,2013-04-29 14:41:00,
2013-04-29 07:42:00,56.7,54.4,29.83,SSW,204,1.0,1.0,92,0.00,,,0.00,VWS V14.01,2013-04-29 14:42:00,
2013-04-29 07:43:00,56.7,54.4,29.83,SSW,204,1.0,1.0,92,0.00,,,0.00,VWS V14.01,2013-04-29 14:43:00,
2013-04-29 07:44:00,56.7,54.4,29.83,SSW,203,3.0,3.0,92,0.00,,,0.00,VWS V14.01,2013-04-29 14:44:00,
2013-04-29 07:46:00,56.7,54.4,29.83,ESE,120,4.0,4.0,92,0.00,,,0.00,VWS V14.01,2013-04-29 14:46:00,
2013-04-29 07:47:00,56.7,54.4,29.83,SSE,162,1.0,2.0,92,0.00,,,0.00,VWS V14.01,2013-04-29 14:47:00,
2013-04-29 07:48:00,56.7,54.4,29.83,SE,136,2.0,4.0,92,0.00,,,0.00,VWS V14.01,2013-04-29 14:48:00,
2013-04-29 07:49:00,56.7,54.4,29.83,SE,142,1.0,2.0,92,0.00,,,0.00,VWS V14.01,2013-04-29 14:49:00,
2013-04-29 07:50:00,56.8,54.5,29.83,East,101,2.0,3.0,92,0.00,,,0.00,VWS V14.01,2013-04-29 14:50:00,
2013-04-29 07:51:00,56.8,54.5,29.83,SSE,150,2.0,3.0,92,0.00,,,0.00,VWS V14.01,2013-04-29 14:51:00,
2013-04-29 07:53:00,56.8,54.5,29.83,SSE,148,3.0,3.0,92,0.00,,,0.00,VWS V14.01,2013-04-29 14:53:00,
2013-04-29 07:55:00,56.8,54.5,29.83,SE,139,2.0,2.0,92,0.00,,,0.00,VWS V14.01,2013-04-29 14:55:00,
2013-04-29 07:56:00,56.8,54.5,29.83,SE,138,3.0,3.0,92,0.00,,,0.00,VWS V14.01,2013-04-29 14:56:00,
2013-04-29 07:57:00,56.8,54.5,29.83,ESE,121,1.0,3.0,92,0.00,,,0.00,VWS V14.01,2013-04-29 14:57:00,
2013-04-29 08:01:00,56.8,54.5,29.83,ESE,111,2.0,3.0,92,0.00,,,0.00,VWS V14.01,2013-04-29 15:01:00,
2013-04-29 08:02:00,56.8,54.5,29.83,ESE,111,2.0,3.0,92,0.00,,,0.00,VWS V14.01,2013-04-29 15:02:00,
2013-04-29 08:03:00,56.9,54.6,29.83,SE,136,1.0,3.0,92,0.00,,,0.00,VWS V14.01,2013-04-29 15:03:00,
2013-04-29 08:04:00,56.9,54.6,29.83,SE,139,0.0,3.0,92,0.00,,,0.00,VWS V14.01,2013-04-29 15:04:00,
2013-04-29 08:07:00,57.0,54.7,29.83,South,183,1.0,1.0,92,0.00,,,0.00,VWS V14.01,2013-04-29 15:07:00,
2013-04-29 08:09:00,57.1,54.8,29.83,WSW,244,1.0,2.0,92,0.00,,,0.00,VWS V14.01,2013-04-29 15:09:00,
2013-04-29 08:10:00,57.1,54.8,29.83,SE,133,2.0,2.0,92,0.00,,,0.00,VWS V14.01,2013-04-29 15:10:00,
2013-04-29 08:11:00,57.1,54.8,29.83,ESE,105,0.0,2.0,92,0.00,,,0.00,VWS V14.01,2013-04-29 15:11:00,
2013-04-29 08:13:00,57.1,54.8,29.83,SE,141,1.0,4.0,92,0.00,,,0.00,VWS V14.01,2013-04-29 15:13:00,
2013-04-29 08:14:00,57.1,54.8,29.83,ESE,115,1.0,1.0,92,0.00,,,0.00,VWS V14.01,2013-04-29 15:14:00,
2013-04-29 08:16:00,57.2,54.9,29.83,SE,133,0.0,1.0,92,0.00,,,0.00,VWS V14.01,2013-04-29 15:16:00,
2013-04-29 08:18:00,57.2,54.9,29.83,SE,124,1.0,1.0,92,0.00,,,0.00,VWS V14.01,2013-04-29 15:18:00,
2013-04-29 08:20:00,57.2,54.9,29.83,East,96,2.0,3.0,92,0.00,,,0.00,VWS V14.01,2013-04-29 15:20:00,
2013-04-29 08:21:00,57.3,55.0,29.83,SE,143,2.0,2.0,92,0.00,,,0.00,VWS V14.01,2013-04-29 15:21:00,
2013-04-29 08:22:00,57.3,55.0,29.83,SE,128,1.0,1.0,92,0.00,,,0.00,VWS V14.01,2013-04-29 15:22:00,
2013-04-29 08:25:00,57.4,55.1,29.83,SSE,162,0.0,1.0,92,0.00,,,0.00,VWS V14.01,2013-04-29 15:25:00,
2013-04-29 08:26:00,57.4,55.1,29.83,South,173,0.0,1.0,92,0.00,,,0.00,VWS V14.01,2013-04-29 15:26:00,
2013-04-29 08:29:00,57.5,55.2,29.83,SE,124,1.0,1.0,92,0.00,,,0.00,VWS V14.01,2013-04-29 15:29:00,
2013-04-29 08:30:00,57.5,55.2,29.83,SSE,158,0.0,2.0,92,0.00,,,0.00,VWS V14.01,2013-04-29 15:30:00,
2013-04-29 08:31:00,57.5,54.9,29.83,ESE,103,3.0,3.0,91,0.00,,,0.00,VWS V14.01,2013-04-29 15:31:00,
2013-04-29 08:32:00,57.5,54.9,29.83,East,80,1.0,2.0,91,0.00,,,0.00,VWS V14.01,2013-04-29 15:32:00,
2013-04-29 08:35:00,57.5,54.9,29.83,East,100,2.0,3.0,91,0.00,,,0.00,VWS V14.01,2013-04-29 15:35:00,
2013-04-29 08:36:00,57.4,54.8,29.83,East,88,3.0,4.0,91,0.00,,,0.00,VWS V14.01,2013-04-29 15:36:00,
2013-04-29 08:37:00,57.5,54.9,29.83,ENE,71,3.0,3.0,91,0.00,,,0.00,VWS V14.01,2013-04-29 15:37:00,
2013-04-29 08:38:00,57.5,54.9,29.83,SE,134,3.0,4.0,91,0.00,,,0.00,VWS V14.01,2013-04-29 15:38:00,
2013-04-29 08:41:00,57.6,55.0,29.83,ENE,73,2.0,2.0,91,0.00,,,0.00,VWS V14.01,2013-04-29 15:41:00,
2013-04-29 08:42:00,57.6,55.0,29.83,ENE,71,1.0,3.0,91,0.00,,,0.00,VWS V14.01,2013-04-29 15:42:00,
2013-04-29 08:43:00,57.6,55.0,29.83,East,90,1.0,3.0,91,0.00,,,0.00,VWS V14.01,2013-04-29 15:43:00,
2013-04-29 08:47:00,57.7,55.1,29.83,SE,134,4.0,4.0,91,0.00,,,0.00,VWS V14.01,2013-04-29 15:47:00,
2013-04-29 08:48:00,57.7,55.1,29.83,ESE,111,4.0,5.0,91,0.00,,,0.00,VWS V14.01,2013-04-29 15:48:00,
2013-04-29 08:51:00,57.6,55.0,29.83,South,190,0.0,1.0,91,0.00,,,0.00,VWS V14.01,2013-04-29 15:51:00,
2013-04-29 08:53:00,57.7,55.1,29.83,East,95,1.0,1.0,91,0.00,,,0.00,VWS V14.01,2013-04-29 15:53:00,
2013-04-29 08:54:00,57.7,55.1,29.83,SSE,159,2.0,4.0,91,0.00,,,0.00,VWS V14.01,2013-04-29 15:54:00,
2013-04-29 08:57:00,57.8,55.2,29.83,East,93,1.0,4.0,91,0.00,,,0.00,VWS V14.01,2013-04-29 15:57:00,
2013-04-29 08:58:00,57.8,55.2,29.83,WSW,248,2.0,2.0,91,0.00,,,0.00,VWS V14.01,2013-04-29 15:58:00,
2013-04-29 08:59:00,57.8,55.2,29.83,ESE,115,5.0,5.0,91,0.00,,,0.00,VWS V14.01,2013-04-29 15:59:00,
2013-04-29 09:00:00,57.8,55.2,29.83,ESE,117,2.0,4.0,91,0.00,,,0.00,VWS V14.01,2013-04-29 16:00:00,
2013-04-29 09:02:00,57.8,55.2,29.83,ESE,103,3.0,3.0,91,0.00,,,0.00,VWS V14.01,2013-04-29 16:02:00,
2013-04-29 09:03:00,57.7,55.1,29.83,ESE,103,2.0,3.0,91,0.00,,,0.00,VWS V14.01,2013-04-29 16:03:00,
2013-04-29 09:05:00,57.7,55.1,29.83,East,98,1.0,2.0,91,0.00,,,0.00,VWS V14.01,2013-04-29 16:05:00,
2013-04-29 09:06:00,57.7,55.1,29.83,ESE,120,2.0,2.0,91,0.00,,,0.00,VWS V14.01,2013-04-29 16:06:00,
2013-04-29 09:08:00,57.7,55.1,29.83,East,90,2.0,3.0,91,0.00,,,0.00,VWS V14.01,2013-04-29 16:08:00,
2013-04-29 09:10:00,57.8,55.2,29.83,SE,143,0.0,1.0,91,0.00,,,0.00,VWS V14.01,2013-04-29 16:10:00,
2013-04-29 09:11:00,57.8,55.2,29.83,SE,143,0.0,0.0,91,0.00,,,0.00,VWS V14.01,2013-04-29 16:11:00,
2013-04-29 09:12:00,57.9,55.3,29.83,East,98,2.0,2.0,91,0.00,,,0.00,VWS V14.01,2013-04-29 16:12:00,
2013-04-29 09:15:00,58.1,55.5,29.83,West,277,3.0,3.0,91,0.00,,,0.00,VWS V14.01,2013-04-29 16:15:00,
2013-04-29 09:16:00,58.2,55.6,29.83,SE,145,1.0,4.0,91,0.00,,,0.00,VWS V14.01,2013-04-29 16:16:00,
2013-04-29 09:20:00,58.3,55.4,29.83,East,94,0.0,1.0,90,0.00,,,0.00,VWS V14.01,2013-04-29 16:20:00,
2013-04-29 09:21:00,58.3,55.4,29.83,ESE,120,0.0,1.0,90,0.00,,,0.00,VWS V14.01,2013-04-29 16:21:00,
2013-04-29 09:22:00,58.4,55.8,29.83,SW,233,0.0,1.0,91,0.00,,,0.00,VWS V14.01,2013-04-29 16:22:00,
2013-04-29 09:24:00,58.5,55.9,29.84,SSW,203,2.0,2.0,91,0.00,,,0.00,VWS V14.01,2013-04-29 16:24:00,
2013-04-29 09:25:00,58.5,55.6,29.83,SE,127,1.0,1.0,90,0.00,,,0.00,VWS V14.01,2013-04-29 16:25:00,
2013-04-29 09:27:00,58.6,55.7,29.84,ENE,72,4.0,4.0,90,0.00,,,0.00,VWS V14.01,2013-04-29 16:27:00,
2013-04-29 09:28:00,58.6,55.7,29.84,SSE,160,1.0,4.0,90,0.00,,,0.00,VWS V14.01,2013-04-29 16:28:00,
2013-04-29 09:29:00,58.7,55.8,29.84,SSE,156,0.0,2.0,90,0.00,,,0.00,VWS V14.01,2013-04-29 16:29:00,
2013-04-29 09:32:00,58.8,55.9,29.84,SE,127,4.0,4.0,90,0.00,,,0.00,VWS V14.01,2013-04-29 16:32:00,
2013-04-29 09:33:00,58.8,55.9,29.84,ESE,119,2.0,4.0,90,0.00,,,0.00,VWS V14.01,2013-04-29 16:33:00,
2013-04-29 09:35:00,58.8,55.6,29.83,SW,219,1.0,3.0,89,0.00,,,0.00,VWS V14.01,2013-04-29 16:35:00,
2013-04-29 09:38:00,58.9,55.7,29.84,SSW,198,2.0,3.0,89,0.00,,,0.00,VWS V14.01,2013-04-29 16:38:00,
2013-04-29 09:39:00,59.0,55.8,29.83,SSW,208,0.0,1.0,89,0.00,,,0.00,VWS V14.01,2013-04-29 16:39:00,
2013-04-29 09:41:00,59.0,55.8,29.83,South,176,1.0,1.0,89,0.00,,,0.00,VWS V14.01,2013-04-29 16:41:00,
2013-04-29 09:45:00,59.0,55.8,29.83,SE,134,0.0,1.0,89,0.00,,,0.00,VWS V14.01,2013-04-29 16:45:00,
2013-04-29 09:47:00,59.1,55.9,29.83,SE,134,0.0,0.0,89,0.00,,,0.00,VWS V14.01,2013-04-29 16:47:00,
2013-04-29 09:50:00,59.3,55.8,29.83,East,98,1.0,3.0,88,0.00,,,0.00,VWS V14.01,2013-04-29 16:50:00,
2013-04-29 09:51:00,59.3,55.8,29.83,ESE,113,1.0,1.0,88,0.00,,,0.00,VWS V14.01,2013-04-29 16:51:00,
2013-04-29 09:52:00,59.4,55.8,29.83,ESE,117,1.0,1.0,88,0.00,,,0.00,VWS V14.01,2013-04-29 16:52:00,
2013-04-29 09:53:00,59.5,56.0,29.83,ESE,108,2.0,3.0,88,0.00,,,0.00,VWS V14.01,2013-04-29 16:53:00,
2013-04-29 09:55:00,59.6,56.0,29.83,ENE,67,2.0,4.0,88,0.00,,,0.00,VWS V14.01,2013-04-29 16:55:00,
2013-04-29 09:57:00,59.5,55.6,29.83,East,87,2.0,3.0,87,0.00,,,0.00,VWS V14.01,2013-04-29 16:57:00,
2013-04-29 09:58:00,59.5,55.6,29.83,ENE,68,2.0,4.0,87,0.00,,,0.00,VWS V14.01,2013-04-29 16:58:00,
2013-04-29 09:59:00,59.4,55.5,29.83,NE,34,2.0,2.0,87,0.00,,,0.00,VWS V14.01,2013-04-29 16:59:00,
2013-04-29 10:00:00,59.4,55.5,29.83,East,95,2.0,2.0,87,0.00,,,0.00,VWS V14.01,2013-04-29 17:00:00,
2013-04-29 10:02:00,59.5,56.0,29.83,NE,49,0.0,1.0,88,0.00,,,0.00,VWS V14.01,2013-04-29 17:02:00,
2013-04-29 10:03:00,59.5,56.0,29.83,SE,131,1.0,1.0,88,0.00,,,0.00,VWS V14.01,2013-04-29 17:03:00,
2013-04-29 10:06:00,59.7,55.8,29.83,ENE,70,2.0,2.0,87,0.00,,,0.00,VWS V14.01,2013-04-29 17:06:00,
2013-04-29 10:08:00,59.7,55.8,29.83,SE,146,1.0,2.0,87,0.00,,,0.00,VWS V14.01,2013-04-29 17:08:00,
2013-04-29 10:11:00,60.0,56.1,29.83,SSE,160,1.0,1.0,87,0.00,,,0.00,VWS V14.01,2013-04-29 17:11:00,
2013-04-29 10:12:00,60.0,56.1,29.83,South,169,1.0,2.0,87,0.00,,,0.00,VWS V14.01,2013-04-29 17:12:00,
2013-04-29 10:13:00,60.1,56.2,29.83,East,89,3.0,3.0,87,0.00,,,0.00,VWS V14.01,2013-04-29 17:13:00,
2013-04-29 10:16:00,60.2,56.0,29.83,ESE,117,2.0,3.0,86,0.00,,,0.00,VWS V14.01,2013-04-29 17:16:00,
2013-04-29 10:18:00,60.2,56.0,29.83,SW,235,2.0,4.0,86,0.00,,,0.00,VWS V14.01,2013-04-29 17:18:00,
2013-04-29 10:19:00,60.2,56.0,29.83,SW,214,1.0,3.0,86,0.00,,,0.00,VWS V14.01,2013-04-29 17:19:00,
2013-04-29 10:21:00,60.3,56.1,29.83,SW,214,0.0,1.0,86,0.00,,,0.00,VWS V14.01,2013-04-29 17:21:00,
2013-04-29 10:24:00,60.5,56.3,29.83,East,88,1.0,2.0,86,0.00,,,0.00,VWS V14.01,2013-04-29 17:24:00,
2013-04-29 10:25:00,60.6,56.4,29.83,ESE,113,0.0,0.0,86,0.00,,,0.00,VWS V14.01,2013-04-29 17:25:00,
2013-04-29 10:26:00,60.7,56.5,29.83,ESE,103,2.0,2.0,86,0.00,,,0.00,VWS V14.01,2013-04-29 17:26:00,
2013-04-29 10:27:00,60.8,56.6,29.83,East,94,1.0,2.0,86,0.00,,,0.00,VWS V14.01,2013-04-29 17:27:00,
2013-04-29 10:29:00,60.9,56.4,29.83,East,90,3.0,3.0,85,0.00,,,0.00,VWS V14.01,2013-04-29 17:29:00,
2013-04-29 10:30:00,60.9,56.4,29.83,ENE,61,1.0,4.0,85,0.00,,,0.00,VWS V14.01,2013-04-29 17:30:00,
2013-04-29 10:31:00,60.9,56.4,29.83,East,88,2.0,3.0,85,0.00,,,0.00,VWS V14.01,2013-04-29 17:31:00,
2013-04-29 10:33:00,60.9,56.4,29.83,SE,124,0.0,1.0,85,0.00,,,0.00,VWS V14.01,2013-04-29 17:33:00,
2013-04-29 10:36:00,61.1,56.6,29.83,SW,231,0.0,1.0,85,0.00,,,0.00,VWS V14.01,2013-04-29 17:36:00,
2013-04-29 10:37:00,61.2,56.7,29.83,SE,128,2.0,2.0,85,0.00,,,0.00,VWS V14.01,2013-04-29 17:37:00,
2013-04-29 10:38:00,61.3,56.8,29.83,SE,128,0.0,1.0,85,0.00,,,0.00,VWS V14.01,2013-04-29 17:38:00,
2013-04-29 10:41:00,61.6,56.7,29.83,SE,131,1.0,2.0,84,0.00,,,0.00,VWS V14.01,2013-04-29 17:41:00,
2013-04-29 10:42:00,61.7,56.8,29.83,SW,224,2.0,3.0,84,0.00,,,0.00,VWS V14.01,2013-04-29 17:42:00,
2013-04-29 10:43:00,61.8,56.9,29.83,WSW,242,2.0,3.0,84,0.00,,,0.00,VWS V14.01,2013-04-29 17:43:00,
2013-04-29 10:44:00,61.9,57.0,29.83,SW,236,4.0,5.0,84,0.00,,,0.00,VWS V14.01,2013-04-29 17:44:00,
2013-04-29 10:45:00,62.0,57.1,29.83,SW,224,3.0,4.0,84,0.00,,,0.00,VWS V14.01,2013-04-29 17:45:00,
2013-04-29 10:48:00,62.0,56.8,29.83,WSW,240,0.0,1.0,83,0.00,,,0.00,VWS V14.01,2013-04-29 17:48:00,
2013-04-29 10:49:00,62.1,56.9,29.83,SSW,193,3.0,3.0,83,0.00,,,0.00,VWS V14.01,2013-04-29 17:49:00,
2013-04-29 10:51:00,62.2,57.0,29.83,ESE,105,3.0,3.0,83,0.00,,,0.00,VWS V14.01,2013-04-29 17:51:00,
2013-04-29 10:52:00,62.3,57.1,29.83,SSE,158,1.0,3.0,83,0.00,,,0.00,VWS V14.01,2013-04-29 17:52:00,
2013-04-29 10:54:00,62.4,56.8,29.83,ESE,117,2.0,4.0,82,0.00,,,0.00,VWS V14.01,2013-04-29 17:54:00,
2013-04-29 10:56:00,62.4,56.8,29.83,East,83,1.0,2.0,82,0.00,,,0.00,VWS V14.01,2013-04-29 17:56:00,
2013-04-29 10:57:00,62.4,56.8,29.83,SSE,150,1.0,1.0,82,0.00,,,0.00,VWS V14.01,2013-04-29 17:57:00,
2013-04-29 10:59:00,62.6,57.0,29.83,SW,225,0.0,1.0,82,0.00,,,0.00,VWS V14.01,2013-04-29 17:59:00,
2013-04-29 11:04:00,63.3,57.4,29.83,SSE,163,1.0,3.0,81,0.00,,,0.00,VWS V14.01,2013-04-29 18:04:00,
2013-04-29 11:08:00,63.4,57.1,29.83,SW,217,3.0,3.0,80,0.00,,,0.00,VWS V14.01,2013-04-29 18:08:00,
2013-04-29 11:09:00,63.4,57.5,29.83,SSE,156,1.0,1.0,81,0.00,,,0.00,VWS V14.01,2013-04-29 18:09:00,
2013-04-29 11:10:00,63.5,57.6,29.83,SW,222,4.0,4.0,81,0.00,,,0.00,VWS V14.01,2013-04-29 18:10:00,
2013-04-29 11:12:00,63.5,57.2,29.83,WSW,245,4.0,4.0,80,0.00,,,0.00,VWS V14.01,2013-04-29 18:12:00,
2013-04-29 11:13:00,63.4,57.1,29.83,West,267,3.0,3.0,80,0.00,,,0.00,VWS V14.01,2013-04-29 18:13:00,
2013-04-29 11:14:00,63.4,57.1,29.83,SW,214,2.0,3.0,80,0.00,,,0.00,VWS V14.01,2013-04-29 18:14:00,
2013-04-29 11:15:00,63.3,57.0,29.83,SSW,201,4.0,4.0,80,0.00,,,0.00,VWS V14.01,2013-04-29 18:15:00,
2013-04-29 11:17:00,63.3,57.4,29.83,SW,235,2.0,4.0,81,0.00,,,0.00,VWS V14.01,2013-04-29 18:17:00,
2013-04-29 11:18:00,63.4,57.5,29.83,SSW,208,3.0,4.0,81,0.00,,,0.00,VWS V14.01,2013-04-29 18:18:00,
2013-04-29 11:20:00,63.5,57.2,29.83,WSW,242,4.0,4.0,80,0.00,,,0.00,VWS V14.01,2013-04-29 18:20:00,
2013-04-29 11:21:00,63.6,57.3,29.83,West,263,0.0,3.0,80,0.00,,,0.00,VWS V14.01,2013-04-29 18:21:00,
2013-04-29 11:22:00,63.7,57.8,29.83,SW,231,3.0,4.0,81,0.00,,,0.00,VWS V14.01,2013-04-29 18:22:00,
2013-04-29 11:24:00,64.1,57.8,29.83,WSW,240,1.0,4.0,80,0.00,,,0.00,VWS V14.01,2013-04-29 18:24:00,
2013-04-29 11:26:00,64.3,57.7,29.83,West,266,5.0,5.0,79,0.00,,,0.00,VWS V14.01,2013-04-29 18:26:00,
2013-04-29 11:27:00,64.4,57.8,29.83,SSW,208,4.0,6.0,79,0.00,,,0.00,VWS V14.01,2013-04-29 18:27:00,
2013-04-29 11:29:00,64.4,57.8,29.83,SSE,147,0.0,4.0,79,0.00,,,0.00,VWS V14.01,2013-04-29 18:29:00,
2013-04-29 11:32:00,64.7,57.3,29.82,WSW,256,2.0,5.0,77,0.00,,,0.00,VWS V14.01,2013-04-29 18:32:00,
2013-04-29 11:34:00,64.7,57.7,29.82,WSW,256,3.0,4.0,78,0.00,,,0.00,VWS V14.01,2013-04-29 18:34:00,
2013-04-29 11:35:00,64.7,57.7,29.82,WNW,293,2.0,4.0,78,0.00,,,0.00,VWS V14.01,2013-04-29 18:35:00,
2013-04-29 11:37:00,64.8,57.8,29.82,West,263,3.0,3.0,78,0.00,,,0.00,VWS V14.01,2013-04-29 18:37:00,
2013-04-29 11:38:00,64.9,57.5,29.82,West,262,4.0,7.0,77,0.00,,,0.00,VWS V14.01,2013-04-29 18:38:00,
2013-04-29 11:40:00,65.0,58.0,29.82,WNW,289,2.0,3.0,78,0.00,,,0.00,VWS V14.01,2013-04-29 18:40:00,
2013-04-29 11:41:00,65.0,57.6,29.82,West,264,4.0,4.0,77,0.00,,,0.00,VWS V14.01,2013-04-29 18:41:00,
2013-04-29 11:43:00,65.2,58.2,29.82,SW,224,3.0,6.0,78,0.00,,,0.00,VWS V14.01,2013-04-29 18:43:00,
2013-04-29 11:44:00,65.4,58.0,29.82,SW,221,3.0,5.0,77,0.00,,,0.00,VWS V14.01,2013-04-29 18:44:00,
2013-04-29 11:46:00,65.5,57.7,29.82,NW,326,1.0,6.0,76,0.00,,,0.00,VWS V14.01,2013-04-29 18:46:00,
2013-04-29 11:49:00,65.8,58.0,29.82,West,267,3.0,6.0,76,0.00,,,0.00,VWS V14.01,2013-04-29 18:49:00,
2013-04-29 11:51:00,65.7,57.9,29.82,SW,219,1.0,2.0,76,0.00,,,0.00,VWS V14.01,2013-04-29 18:51:00,
2013-04-29 11:52:00,65.7,57.9,29.82,West,269,2.0,2.0,76,0.00,,,0.00,VWS V14.01,2013-04-29 18:52:00,
2013-04-29 11:54:00,65.7,57.6,29.81,SW,236,8.0,8.0,75,0.00,,,0.00,VWS V14.01,2013-04-29 18:54:00,
2013-04-29 11:57:00,65.4,58.0,29.82,South,170,6.0,8.0,77,0.00,,,0.00,VWS V14.01,2013-04-29 18:57:00,
2013-04-29 11:59:00,65.7,58.3,29.81,SW,226,4.0,6.0,77,0.00,,,0.00,VWS V14.01,2013-04-29 18:59:00,
2013-04-29 12:00:00,65.7,57.9,29.81,SSW,208,2.0,5.0,76,0.00,,,0.00,VWS V14.01,2013-04-29 19:00:00,
2013-04-29 12:02:00,66.0,57.9,29.81,WSW,249,1.0,4.0,75,0.00,,,0.00,VWS V14.01,2013-04-29 19:02:00,
2013-04-29 12:03:00,66.2,58.0,29.81,SW,233,6.0,6.0,75,0.00,,,0.00,VWS V14.01,2013-04-29 19:03:00,
2013-04-29 12:05:00,66.3,58.2,29.81,WSW,248,6.0,6.0,75,0.00,,,0.00,VWS V14.01,2013-04-29 19:05:00,
2013-04-29 12:06:00,66.3,57.8,29.81,SE,145,1.0,6.0,74,0.00,,,0.00,VWS V14.01,2013-04-29 19:06:00,
2013-04-29 12:07:00,66.4,58.2,29.81,SE,138,0.0,2.0,75,0.00,,,0.00,VWS V14.01,2013-04-29 19:07:00,
2013-04-29 12:09:00,66.8,58.6,29.81,SSE,154,0.0,3.0,75,0.00,,,0.00,VWS V14.01,2013-04-29 19:09:00,
2013-04-29 12:12:00,67.2,58.3,29.81,WSW,249,6.0,6.0,73,0.00,,,0.00,VWS V14.01,2013-04-29 19:12:00,
2013-04-29 12:14:00,67.3,58.4,29.81,ESE,104,2.0,3.0,73,0.00,,,0.00,VWS V14.01,2013-04-29 19:14:00,
2013-04-29 12:15:00,67.2,57.9,29.81,NE,34,1.0,1.0,72,0.00,,,0.00,VWS V14.01,2013-04-29 19:15:00,
2013-04-29 12:17:00,67.4,58.8,29.81,SW,236,1.0,2.0,74,0.00,,,0.00,VWS V14.01,2013-04-29 19:17:00,
2013-04-29 12:19:00,67.8,58.5,29.81,SW,235,3.0,4.0,72,0.00,,,0.00,VWS V14.01,2013-04-29 19:19:00,
2013-04-29 12:21:00,68.0,58.7,29.81,South,179,3.0,7.0,72,0.00,,,0.00,VWS V14.01,2013-04-29 19:21:00,
2013-04-29 12:23:00,68.1,58.3,29.81,SE,129,1.0,4.0,71,0.00,,,0.00,VWS V14.01,2013-04-29 19:23:00,
2013-04-29 12:24:00,68.2,58.8,29.81,WSW,242,1.0,4.0,72,0.00,,,0.00,VWS V14.01,2013-04-29 19:24:00,
2013-04-29 12:26:00,68.6,58.8,29.80,SE,134,6.0,8.0,71,0.00,,,0.00,VWS V14.01,2013-04-29 19:26:00,
2013-04-29 12:29:00,68.9,59.1,29.80,ESE,117,3.0,6.0,71,0.00,,,0.00,VWS V14.01,2013-04-29 19:29:00,
2013-04-29 12:30:00,68.9,58.7,29.80,South,191,2.0,3.0,70,0.00,,,0.00,VWS V14.01,2013-04-29 19:30:00,
2013-04-29 12:31:00,68.9,58.7,29.80,East,101,3.0,3.0,70,0.00,,,0.00,VWS V14.01,2013-04-29 19:31:00,
2013-04-29 12:32:00,69.0,58.8,29.80,SW,235,1.0,1.0,70,0.00,,,0.00,VWS V14.01,2013-04-29 19:32:00,
2013-04-29 12:33:00,69.1,58.9,29.80,South,183,5.0,5.0,70,0.00,,,0.00,VWS V14.01,2013-04-29 19:33:00,
2013-04-29 12:34:00,69.3,58.7,29.80,SE,132,5.0,6.0,69,0.00,,,0.00,VWS V14.01,2013-04-29 19:34:00,
2013-04-29 12:36:00,69.2,58.6,29.80,SSE,157,1.0,4.0,69,0.00,,,0.00,VWS V14.01,2013-04-29 19:36:00,
2013-04-29 12:38:00,69.3,58.7,29.80,NW,316,1.0,1.0,69,0.00,,,0.00,VWS V14.01,2013-04-29 19:38:00,
2013-04-29 12:40:00,69.5,58.9,29.80,WSW,238,2.0,3.0,69,0.00,,,0.00,VWS V14.01,2013-04-29 19:40:00,
2013-04-29 12:41:00,69.7,59.1,29.80,SW,228,4.0,6.0,69,0.00,,,0.00,VWS V14.01,2013-04-29 19:41:00,
2013-04-29 12:43:00,70.1,59.1,29.79,West,278,2.0,3.0,68,0.00,,,0.00,VWS V14.01,2013-04-29 19:43:00,
2013-04-29 12:45:00,70.1,59.1,29.79,WSW,242,3.0,3.0,68,0.00,,,0.00,VWS V14.01,2013-04-29 19:45:00,
2013-04-29 12:47:00,70.4,59.3,29.79,SSE,162,3.0,3.0,68,0.00,,,0.00,VWS V14.01,2013-04-29 19:47:00,
2013-04-29 12:48:00,70.5,59.4,29.79,SW,225,3.0,5.0,68,0.00,,,0.00,VWS V14.01,2013-04-29 19:48:00,
2013-04-29 12:49:00,70.6,59.1,29.79,SSW,210,6.0,6.0,67,0.00,,,0.00,VWS V14.01,2013-04-29 19:49:00,
2013-04-29 12:51:00,70.6,59.1,29.79,SW,224,6.0,7.0,67,0.00,,,0.00,VWS V14.01,2013-04-29 19:51:00,
2013-04-29 12:52:00,70.6,59.1,29.79,SSE,158,3.0,6.0,67,0.00,,,0.00,VWS V14.01,2013-04-29 19:52:00,
2013-04-29 12:53:00,70.7,59.2,29.79,SW,229,6.0,7.0,67,0.00,,,0.00,VWS V14.01,2013-04-29 19:53:00,
2013-04-29 12:54:00,70.6,58.7,29.79,SW,236,5.0,7.0,66,0.00,,,0.00,VWS V14.01,2013-04-29 19:54:00,
2013-04-29 12:56:00,70.2,58.7,29.79,West,274,4.0,6.0,67,0.00,,,0.00,VWS V14.01,2013-04-29 19:56:00,
2013-04-29 12:57:00,70.2,58.7,29.79,SSW,195,4.0,6.0,67,0.00,,,0.00,VWS V14.01,2013-04-29 19:57:00,
2013-04-29 12:58:00,70.1,58.7,29.79,SW,233,6.0,8.0,67,0.00,,,0.00,VWS V14.01,2013-04-29 19:58:00,
2013-04-29 12:59:00,70.0,59.0,29.79,SSW,198,4.0,6.0,68,0.00,,,0.00,VWS V14.01,2013-04-29 19:59:00,
2013-04-29 13:00:00,70.0,58.5,29.79,SSW,208,3.0,7.0,67,0.00,,,0.00,VWS V14.01,2013-04-29 20:00:00,
2013-04-29 13:01:00,70.0,59.0,29.79,SE,146,5.0,5.0,68,0.00,,,0.00,VWS V14.01,2013-04-29 20:01:00,
2013-04-29 13:04:00,70.1,59.1,29.79,SSE,160,4.0,6.0,68,0.00,,,0.00,VWS V14.01,2013-04-29 20:04:00,
2013-04-29 13:05:00,70.2,59.2,29.79,SSE,159,3.0,4.0,68,0.00,,,0.00,VWS V14.01,2013-04-29 20:05:00,
2013-04-29 13:06:00,70.3,59.2,29.79,SSE,162,2.0,2.0,68,0.00,,,0.00,VWS V14.01,2013-04-29 20:06:00,
2013-04-29 13:08:00,70.6,58.7,29.79,WNW,290,2.0,2.0,66,0.00,,,0.00,VWS V14.01,2013-04-29 20:08:00,
2013-04-29 13:09:00,70.7,58.8,29.79,SSW,200,3.0,5.0,66,0.00,,,0.00,VWS V14.01,2013-04-29 20:09:00,
2013-04-29 13:10:00,70.7,58.8,29.79,SSW,212,3.0,3.0,66,0.00,,,0.00,VWS V14.01,2013-04-29 20:10:00,
2013-04-29 13:11:00,70.8,58.9,29.79,West,263,5.0,7.0,66,0.00,,,0.00,VWS V14.01,2013-04-29 20:11:00,
2013-04-29 13:13:00,70.8,58.9,29.79,WSW,238,5.0,5.0,66,0.00,,,0.00,VWS V14.01,2013-04-29 20:13:00,
2013-04-29 13:14:00,70.6,58.7,29.79,ESE,117,2.0,5.0,66,0.00,,,0.00,VWS V14.01,2013-04-29 20:14:00,
2013-04-29 13:15:00,70.6,58.7,29.79,SSE,159,4.0,5.0,66,0.00,,,0.00,VWS V14.01,2013-04-29 20:15:00,
2013-04-29 13:17:00,70.5,58.6,29.79,WSW,248,4.0,7.0,66,0.00,,,0.00,VWS V14.01,2013-04-29 20:17:00,
2013-04-29 13:18:00,70.3,58.4,29.79,SSW,211,2.0,8.0,66,0.00,,,0.00,VWS V14.01,2013-04-29 20:18:00,
2013-04-29 13:20:00,70.2,59.2,29.79,SSW,207,2.0,5.0,68,0.00,,,0.00,VWS V14.01,2013-04-29 20:20:00,
2013-04-29 13:23:00,70.6,59.1,29.79,SE,143,1.0,3.0,67,0.00,,,0.00,VWS V14.01,2013-04-29 20:23:00,
2013-04-29 13:24:00,70.7,59.2,29.78,SSW,198,4.0,4.0,67,0.00,,,0.00,VWS V14.01,2013-04-29 20:24:00,
2013-04-29 13:27:00,71.2,59.7,29.78,SSE,148,3.0,4.0,67,0.00,,,0.00,VWS V14.01,2013-04-29 20:27:00,
2013-04-29 13:28:00,71.4,59.9,29.78,South,191,3.0,5.0,67,0.00,,,0.00,VWS V14.01,2013-04-29 20:28:00,
2013-04-29 13:29:00,71.7,59.3,29.78,South,170,4.0,6.0,65,0.00,,,0.00,VWS V14.01,2013-04-29 20:29:00,
2013-04-29 13:32:00,71.4,58.6,29.78,SW,233,1.0,3.0,64,0.00,,,0.00,VWS V14.01,2013-04-29 20:32:00,
2013-04-29 13:33:00,71.2,58.8,29.78,SSE,159,2.0,4.0,65,0.00,,,0.00,VWS V14.01,2013-04-29 20:33:00,
2013-04-29 13:34:00,71.2,59.3,29.78,WSW,256,4.0,6.0,66,0.00,,,0.00,VWS V14.01,2013-04-29 20:34:00,
2013-04-29 13:37:00,71.7,59.3,29.78,WSW,238,2.0,6.0,65,0.00,,,0.00,VWS V14.01,2013-04-29 20:37:00,
2013-04-29 13:39:00,71.6,58.8,29.78,SW,226,2.0,5.0,64,0.00,,,0.00,VWS V14.01,2013-04-29 20:39:00,
2013-04-29 13:40:00,71.6,59.2,29.78,ESE,121,2.0,2.0,65,0.00,,,0.00,VWS V14.01,2013-04-29 20:40:00,
2013-04-29 13:41:00,71.8,59.4,29.78,WSW,251,6.0,7.0,65,0.00,,,0.00,VWS V14.01,2013-04-29 20:41:00,
2013-04-29 13:42:00,71.9,59.5,29.78,SSW,195,2.0,7.0,65,0.00,,,0.00,VWS V14.01,2013-04-29 20:42:00,
2013-04-29 13:44:00,72.2,59.4,29.78,SW,233,3.0,6.0,64,0.00,,,0.00,VWS V14.01,2013-04-29 20:44:00,
2013-04-29 13:45:00,72.2,59.4,29.78,SSE,147,4.0,5.0,64,0.00,,,0.00,VWS V14.01,2013-04-29 20:45:00,
2013-04-29 13:46:00,72.1,58.8,29.78,SE,135,3.0,3.0,63,0.00,,,0.00,VWS V14.01,2013-04-29 20:46:00,
2013-04-29 13:48:00,71.7,58.9,29.78,South,190,2.0,3.0,64,0.00,,,0.00,VWS V14.01,2013-04-29 20:48:00,
2013-04-29 13:50:00,71.8,59.4,29.78,WSW,250,2.0,4.0,65,0.00,,,0.00,VWS V14.01,2013-04-29 20:50:00,
2013-04-29 13:52:00,72.1,59.3,29.78,ESE,121,3.0,4.0,64,0.00,,,0.00,VWS V14.01,2013-04-29 20:52:00,
2013-04-29 13:53:00,72.1,58.8,29.78,ESE,120,4.0,4.0,63,0.00,,,0.00,VWS V14.01,2013-04-29 20:53:00,
2013-04-29 13:54:00,71.9,58.6,29.78,SSW,205,3.0,4.0,63,0.00,,,0.00,VWS V14.01,2013-04-29 20:54:00,
2013-04-29 13:55:00,71.9,59.1,29.78,ESE,108,3.0,4.0,64,0.00,,,0.00,VWS V14.01,2013-04-29 20:55:00,
2013-04-29 13:57:00,71.9,59.5,29.78,SSE,152,3.0,3.0,65,0.00,,,0.00,VWS V14.01,2013-04-29 20:57:00,
2013-04-29 13:59:00,72.0,59.2,29.78,SW,214,6.0,6.0,64,0.00,,,0.00,VWS V14.01,2013-04-29 20:59:00,
2013-04-29 14:00:00,72.0,58.7,29.78,WSW,250,6.0,10.0,63,0.00,,,0.00,VWS V14.01,2013-04-29 21:00:00,
2013-04-29 14:01:00,71.9,59.1,29.77,SSW,198,3.0,6.0,64,0.00,,,0.00,VWS V14.01,2013-04-29 21:01:00,
2013-04-29 14:04:00,72.0,59.2,29.77,SW,215,4.0,7.0,64,0.00,,,0.00,VWS V14.01,2013-04-29 21:04:00,
2013-04-29 14:06:00,71.7,58.9,29.77,SW,229,7.0,7.0,64,0.00,,,0.00,VWS V14.01,2013-04-29 21:06:00,
2013-04-29 14:07:00,71.5,58.7,29.77,WSW,255,4.0,7.0,64,0.00,,,0.00,VWS V14.01,2013-04-29 21:07:00,
2013-04-29 14:10:00,71.3,58.9,29.77,SSW,200,3.0,6.0,65,0.00,,,0.00,VWS V14.01,2013-04-29 21:10:00,
2013-04-29 14:11:00,71.4,59.0,29.77,SSW,211,4.0,5.0,65,0.00,,,0.00,VWS V14.01,2013-04-29 21:11:00,
2013-04-29 14:13:00,71.5,59.1,29.77,South,177,3.0,5.0,65,0.00,,,0.00,VWS V14.01,2013-04-29 21:13:00,
2013-04-29 14:15:00,71.6,58.8,29.77,WSW,244,2.0,5.0,64,0.00,,,0.00,VWS V14.01,2013-04-29 21:15:00,
2013-04-29 14:17:00,71.4,59.0,29.77,WSW,242,2.0,4.0,65,0.00,,,0.00,VWS V14.01,2013-04-29 21:17:00,
2013-04-29 14:18:00,71.3,58.9,29.77,WSW,253,6.0,6.0,65,0.00,,,0.00,VWS V14.01,2013-04-29 21:18:00,
2013-04-29 14:19:00,71.6,59.2,29.77,South,169,5.0,6.0,65,0.00,,,0.00,VWS V14.01,2013-04-29 21:19:00,
2013-04-29 14:20:00,71.7,59.3,29.77,SSW,201,2.0,3.0,65,0.00,,,0.00,VWS V14.01,2013-04-29 21:20:00,
2013-04-29 14:25:00,71.9,59.5,29.77,SSW,197,5.0,5.0,65,0.00,,,0.00,VWS V14.01,2013-04-29 21:25:00,
2013-04-29 14:26:00,72.2,59.8,29.77,West,259,8.0,8.0,65,0.00,,,0.00,VWS V14.01,2013-04-29 21:26:00,
2013-04-29 14:27:00,71.8,58.1,29.77,WSW,252,7.0,8.0,62,0.00,,,0.00,VWS V14.01,2013-04-29 21:27:00,
2013-04-29 14:28:00,71.5,58.3,29.77,SW,229,6.0,10.0,63,0.00,,,0.00,VWS V14.01,2013-04-29 21:28:00,
2013-04-29 14:30:00,71.2,59.3,29.77,SSW,207,5.0,6.0,66,0.00,,,0.00,VWS V14.01,2013-04-29 21:30:00,
2013-04-29 14:31:00,71.2,58.8,29.77,South,172,4.0,4.0,65,0.00,,,0.00,VWS V14.01,2013-04-29 21:31:00,
2013-04-29 14:32:00,71.3,58.9,29.77,WNW,290,4.0,5.0,65,0.00,,,0.00,VWS V14.01,2013-04-29 21:32:00,
2013-04-29 14:33:00,71.4,59.0,29.77,West,266,4.0,5.0,65,0.00,,,0.00,VWS V14.01,2013-04-29 21:33:00,
2013-04-29 14:35:00,71.4,59.0,29.77,SSW,195,10.0,11.0,65,0.00,,,0.00,VWS V14.01,2013-04-29 21:35:00,
2013-04-29 14:36:00,71.2,58.4,29.77,WSW,238,4.0,10.0,64,0.00,,,0.00,VWS V14.01,2013-04-29 21:36:00,
2013-04-29 14:38:00,70.9,58.1,29.77,SSE,158,4.0,10.0,64,0.00,,,0.00,VWS V14.01,2013-04-29 21:38:00,
2013-04-29 14:39:00,70.8,58.9,29.77,WNW,286,3.0,6.0,66,0.00,,,0.00,VWS V14.01,2013-04-29 21:39:00,
2013-04-29 14:43:00,71.1,59.2,29.76,SSE,160,4.0,6.0,66,0.00,,,0.00,VWS V14.01,2013-04-29 21:43:00,
2013-04-29 14:45:00,71.4,59.0,29.76,SW,224,10.0,10.0,65,0.00,,,0.00,VWS V14.01,2013-04-29 21:45:00,
2013-04-29 14:46:00,71.3,58.5,29.76,SE,133,2.0,10.0,64,0.00,,,0.00,VWS V14.01,2013-04-29 21:46:00,
2013-04-29 14:48:00,71.2,59.3,29.76,SSW,204,3.0,4.0,66,0.00,,,0.00,VWS V14.01,2013-04-29 21:48:00,
2013-04-29 14:50:00,71.5,59.1,29.76,ESE,116,6.0,7.0,65,0.00,,,0.00,VWS V14.01,2013-04-29 21:50:00,
2013-04-29 14:51:00,71.5,58.7,29.76,South,187,3.0,7.0,64,0.00,,,0.00,VWS V14.01,2013-04-29 21:51:00,
2013-04-29 14:52:00,71.5,59.1,29.76,WSW,237,7.0,8.0,65,0.00,,,0.00,VWS V14.01,2013-04-29 21:52:00,
2013-04-29 14:54:00,71.4,59.0,29.76,SSW,212,5.0,7.0,65,0.00,,,0.00,VWS V14.01,2013-04-29 21:54:00,
2013-04-29 14:55:00,71.4,59.5,29.76,SW,224,2.0,3.0,66,0.00,,,0.00,VWS V14.01,2013-04-29 21:55:00,
2013-04-29 14:57:00,71.8,59.4,29.76,WSW,237,3.0,6.0,65,0.00,,,0.00,VWS V14.01,2013-04-29 21:57:00,
2013-04-29 14:58:00,72.0,59.2,29.76,WSW,245,5.0,7.0,64,0.00,,,0.00,VWS V14.01,2013-04-29 21:58:00,
2013-04-29 14:59:00,72.0,59.2,29.76,SE,132,1.0,3.0,64,0.00,,,0.00,VWS V14.01,2013-04-29 21:59:00,
2013-04-29 15:02:00,72.4,59.5,29.75,SSE,158,3.0,4.0,64,0.00,,,0.00,VWS V14.01,2013-04-29 22:02:00,
2013-04-29 15:03:00,72.5,59.2,29.75,SSW,202,2.0,5.0,63,0.00,,,0.00,VWS V14.01,2013-04-29 22:03:00,
2013-04-29 15:05:00,72.6,58.8,29.75,SW,217,4.0,6.0,62,0.00,,,0.00,VWS V14.01,2013-04-29 22:05:00,
2013-04-29 15:06:00,72.4,58.7,29.75,ESE,122,3.0,7.0,62,0.00,,,0.00,VWS V14.01,2013-04-29 22:06:00,
2013-04-29 15:08:00,72.4,59.5,29.75,West,271,2.0,3.0,64,0.00,,,0.00,VWS V14.01,2013-04-29 22:08:00,
2013-04-29 15:10:00,72.8,59.9,29.75,WSW,242,5.0,5.0,64,0.00,,,0.00,VWS V14.01,2013-04-29 22:10:00,
2013-04-29 15:11:00,73.0,59.7,29.75,South,190,1.0,5.0,63,0.00,,,0.00,VWS V14.01,2013-04-29 22:11:00,
2013-04-29 15:12:00,73.1,59.8,29.75,SSE,149,2.0,6.0,63,0.00,,,0.00,VWS V14.01,2013-04-29 22:12:00,
2013-04-29 15:13:00,73.2,59.4,29.75,SSE,156,3.0,5.0,62,0.00,,,0.00,VWS V14.01,2013-04-29 22:13:00,
2013-04-29 15:14:00,73.2,59.4,29.75,SE,146,4.0,4.0,62,0.00,,,0.00,VWS V14.01,2013-04-29 22:14:00,
2013-04-29 15:16:00,73.1,58.9,29.75,East,98,3.0,5.0,61,0.00,,,0.00,VWS V14.01,2013-04-29 22:16:00,
2013-04-29 15:17:00,72.8,59.0,29.75,SSW,200,3.0,4.0,62,0.00,,,0.00,VWS V14.01,2013-04-29 22:17:00,
2013-04-29 15:18:00,72.7,58.9,29.75,SSW,210,1.0,4.0,62,0.00,,,0.00,VWS V14.01,2013-04-29 22:18:00,
2013-04-29 15:19:00,72.7,59.4,29.75,SE,134,3.0,4.0,63,0.00,,,0.00,VWS V14.01,2013-04-29 22:19:00,
2013-04-29 15:21:00,72.7,58.9,29.75,SW,222,6.0,7.0,62,0.00,,,0.00,VWS V14.01,2013-04-29 22:21:00,
2013-04-29 15:23:00,72.6,59.3,29.75,SSW,205,2.0,6.0,63,0.00,,,0.00,VWS V14.01,2013-04-29 22:23:00,
2013-04-29 15:26:00,72.4,59.1,29.74,SE,143,4.0,7.0,63,0.00,,,0.00,VWS V14.01,2013-04-29 22:26:00,
2013-04-29 15:27:00,72.3,59.0,29.74,ESE,113,4.0,6.0,63,0.00,,,0.00,VWS V14.01,2013-04-29 22:27:00,
2013-04-29 15:28:00,72.3,59.5,29.74,SSW,207,3.0,5.0,64,0.00,,,0.00,VWS V14.01,2013-04-29 22:28:00,
2013-04-29 15:30:00,72.5,59.2,29.74,SSE,157,2.0,4.0,63,0.00,,,0.00,VWS V14.01,2013-04-29 22:30:00,
2013-04-29 15:31:00,72.5,59.2,29.74,SSE,150,3.0,5.0,63,0.00,,,0.00,VWS V14.01,2013-04-29 22:31:00,
2013-04-29 15:33:00,72.5,59.2,29.74,SSE,160,3.0,3.0,63,0.00,,,0.00,VWS V14.01,2013-04-29 22:33:00,
2013-04-29 15:34:00,72.6,59.3,29.74,ESE,117,2.0,3.0,63,0.00,,,0.00,VWS V14.01,2013-04-29 22:34:00,
2013-04-29 15:35:00,72.6,59.3,29.74,SSW,197,5.0,6.0,63,0.00,,,0.00,VWS V14.01,2013-04-29 22:35:00,
2013-04-29 15:36:00,72.7,58.9,29.74,SSW,208,3.0,7.0,62,0.00,,,0.00,VWS V14.01,2013-04-29 22:36:00,
2013-04-29 15:37:00,72.7,58.9,29.74,SSW,202,5.0,7.0,62,0.00,,,0.00,VWS V14.01,2013-04-29 22:37:00,
2013-04-29 15:40:00,72.7,58.9,29.74,WSW,239,3.0,5.0,62,0.00,,,0.00,VWS V14.01,2013-04-29 22:40:00,
2013-04-29 15:42:00,72.8,59.0,29.74,SSE,155,6.0,9.0,62,0.00,,,0.00,VWS V14.01,2013-04-29 22:42:00,
2013-04-29 15:43:00,72.7,58.9,29.74,South,184,5.0,7.0,62,0.00,,,0.00,VWS V14.01,2013-04-29 22:43:00,
2013-04-29 15:44:00,72.7,58.9,29.74,SW,222,8.0,9.0,62,0.00,,,0.00,VWS V14.01,2013-04-29 22:44:00,
2013-04-29 15:48:00,72.1,58.8,29.74,SW,232,4.0,5.0,63,0.00,,,0.00,VWS V14.01,2013-04-29 22:48:00,
2013-04-29 15:49:00,72.1,58.8,29.74,SW,222,6.0,6.0,63,0.00,,,0.00,VWS V14.01,2013-04-29 22:49:00,
2013-04-29 15:50:00,72.2,58.9,29.74,SW,226,4.0,6.0,63,0.00,,,0.00,VWS V14.01,2013-04-29 22:50:00,
2013-04-29 15:52:00,72.6,58.8,29.74,West,276,3.0,5.0,62,0.00,,,0.00,VWS V14.01,2013-04-29 22:52:00,
2013-04-29 15:54:00,72.9,59.1,29.74,West,262,6.0,7.0,62,0.00,,,0.00,VWS V14.01,2013-04-29 22:54:00,
2013-04-29 15:56:00,72.6,58.8,29.73,South,172,6.0,8.0,62,0.00,,,0.00,VWS V14.01,2013-04-29 22:56:00,
2013-04-29 15:58:00,72.3,58.6,29.73,WSW,244,6.0,8.0,62,0.00,,,0.00,VWS V14.01,2013-04-29 22:58:00,
2013-04-29 16:01:00,71.9,58.2,29.73,SW,221,6.0,8.0,62,0.00,,,0.00,VWS V14.01,2013-04-29 23:01:00,
2013-04-29 16:02:00,71.9,58.2,29.73,WSW,242,5.0,7.0,62,0.00,,,0.00,VWS V14.01,2013-04-29 23:02:00,
2013-04-29 16:04:00,71.7,58.5,29.73,WSW,245,5.0,7.0,63,0.00,,,0.00,VWS V14.01,2013-04-29 23:04:00,
2013-04-29 16:07:00,71.1,57.9,29.73,SW,231,5.0,6.0,63,0.00,,,0.00,VWS V14.01,2013-04-29 23:07:00,
2013-04-29 16:08:00,71.0,58.2,29.73,West,263,2.0,7.0,64,0.00,,,0.00,VWS V14.01,2013-04-29 23:08:00,
2013-04-29 16:09:00,71.1,58.8,29.73,West,263,5.0,5.0,65,0.00,,,0.00,VWS V14.01,2013-04-29 23:09:00,
2013-04-29 16:10:00,71.2,58.4,29.73,WSW,244,8.0,10.0,64,0.00,,,0.00,VWS V14.01,2013-04-29 23:10:00,
2013-04-29 16:14:00,70.7,58.4,29.73,West,278,2.0,4.0,65,0.00,,,0.00,VWS V14.01,2013-04-29 23:14:00,
2013-04-29 16:15:00,70.9,58.6,29.73,SW,232,11.0,11.0,65,0.00,,,0.00,VWS V14.01,2013-04-29 23:15:00,
2013-04-29 16:18:00,70.7,57.9,29.73,SW,225,9.0,9.0,64,0.00,,,0.00,VWS V14.01,2013-04-29 23:18:00,
2013-04-29 16:19:00,70.5,57.8,29.73,SW,222,2.0,7.0,64,0.00,,,0.00,VWS V14.01,2013-04-29 23:19:00,
2013-04-29 16:20:00,70.4,57.7,29.73,SSW,204,2.0,5.0,64,0.00,,,0.00,VWS V14.01,2013-04-29 23:20:00,
2013-04-29 16:22:00,70.3,57.6,29.73,WSW,250,6.0,8.0,64,0.00,,,0.00,VWS V14.01,2013-04-29 23:22:00,
2013-04-29 16:25:00,70.1,57.8,29.73,SSW,210,4.0,5.0,65,0.00,,,0.00,VWS V14.01,2013-04-29 23:25:00,
2013-04-29 16:26:00,70.0,57.7,29.73,West,276,4.0,8.0,65,0.00,,,0.00,VWS V14.01,2013-04-29 23:26:00,
2013-04-29 16:28:00,70.2,58.3,29.73,South,188,6.0,6.0,66,0.00,,,0.00,VWS V14.01,2013-04-29 23:28:00,
2013-04-29 16:31:00,70.1,57.8,29.73,SSE,166,4.0,10.0,65,0.00,,,0.00,VWS V14.01,2013-04-29 23:31:00,
2013-04-29 16:32:00,70.1,57.8,29.73,WSW,248,5.0,6.0,65,0.00,,,0.00,VWS V14.01,2013-04-29 23:32:00,
2013-04-29 16:33:00,70.1,57.8,29.73,South,181,3.0,6.0,65,0.00,,,0.00,VWS V14.01,2013-04-29 23:33:00,
2013-04-29 16:34:00,70.1,57.8,29.73,SW,215,6.0,9.0,65,0.00,,,0.00,VWS V14.01,2013-04-29 23:34:00,
2013-04-29 16:35:00,70.1,57.8,29.73,SW,222,5.0,8.0,65,0.00,,,0.00,VWS V14.01,2013-04-29 23:35:00,
2013-04-29 16:38:00,70.3,58.4,29.73,SSW,209,4.0,4.0,66,0.00,,,0.00,VWS V14.01,2013-04-29 23:38:00,
2013-04-29 16:39:00,70.4,58.1,29.73,South,183,3.0,5.0,65,0.00,,,0.00,VWS V14.01,2013-04-29 23:39:00,
2013-04-29 16:40:00,70.5,58.2,29.73,SE,126,5.0,7.0,65,0.00,,,0.00,VWS V14.01,2013-04-29 23:40:00,
2013-04-29 16:42:00,70.4,57.7,29.73,SSE,153,4.0,6.0,64,0.00,,,0.00,VWS V14.01,2013-04-29 23:42:00,
2013-04-29 16:44:00,70.1,57.8,29.73,SSW,194,3.0,6.0,65,0.00,,,0.00,VWS V14.01,2013-04-29 23:44:00,
2013-04-29 16:45:00,70.2,57.9,29.73,SSE,158,4.0,6.0,65,0.00,,,0.00,VWS V14.01,2013-04-29 23:45:00,
2013-04-29 16:47:00,70.2,57.9,29.73,SSE,167,3.0,6.0,65,0.00,,,0.00,VWS V14.01,2013-04-29 23:47:00,
2013-04-29 16:50:00,70.4,57.7,29.73,SSW,203,6.0,8.0,64,0.00,,,0.00,VWS V14.01,2013-04-29 23:50:00,
2013-04-29 16:51:00,70.1,57.4,29.73,SSW,210,5.0,8.0,64,0.00,,,0.00,VWS V14.01,2013-04-29 23:51:00,
2013-04-29 16:52:00,69.9,57.6,29.73,SW,229,5.0,7.0,65,0.00,,,0.00,VWS V14.01,2013-04-29 23:52:00,
2013-04-29 16:53:00,69.7,57.4,29.73,SSW,201,4.0,5.0,65,0.00,,,0.00,VWS V14.01,2013-04-29 23:53:00,
2013-04-29 16:56:00,69.7,57.8,29.73,SSE,160,4.0,4.0,66,0.00,,,0.00,VWS V14.01,2013-04-29 23:56:00,
2013-04-29 16:57:00,69.7,57.8,29.73,SSE,160,6.0,6.0,66,0.00,,,0.00,VWS V14.01,2013-04-29 23:57:00,
2013-04-29 16:58:00,69.7,57.8,29.73,South,186,4.0,5.0,66,0.00,,,0.00,VWS V14.01,2013-04-29 23:58:00,
2013-04-29 17:00:00,69.6,57.8,29.73,SW,226,5.0,8.0,66,0.00,,,0.00,VWS V14.01,2013-04-30 00:00:00,
2013-04-29 17:01:00,69.5,57.7,29.73,SW,225,6.0,7.0,66,0.00,,,0.00,VWS V14.01,2013-04-30 00:01:00,
2013-04-29 17:02:00,69.4,57.6,29.73,South,191,2.0,5.0,66,0.00,,,0.00,VWS V14.01,2013-04-30 00:02:00,
2013-04-29 17:04:00,69.2,57.8,29.73,South,170,6.0,6.0,67,0.00,,,0.00,VWS V14.01,2013-04-30 00:04:00,
2013-04-29 17:06:00,69.2,57.4,29.73,SW,214,6.0,8.0,66,0.00,,,0.00,VWS V14.01,2013-04-30 00:06:00,
2013-04-29 17:07:00,69.2,57.8,29.73,SW,219,5.0,6.0,67,0.00,,,0.00,VWS V14.01,2013-04-30 00:07:00,
2013-04-29 17:09:00,68.9,57.5,29.73,SW,217,4.0,6.0,67,0.00,,,0.00,VWS V14.01,2013-04-30 00:09:00,
2013-04-29 17:12:00,68.8,57.4,29.73,SW,225,6.0,8.0,67,0.00,,,0.00,VWS V14.01,2013-04-30 00:12:00,
2013-04-29 17:13:00,68.6,57.2,29.73,SW,231,5.0,8.0,67,0.00,,,0.00,VWS V14.01,2013-04-30 00:13:00,
2013-04-29 17:15:00,68.7,57.7,29.73,SW,229,3.0,5.0,68,0.00,,,0.00,VWS V14.01,2013-04-30 00:15:00,
2013-04-29 17:18:00,69.2,57.8,29.72,SSW,200,4.0,4.0,67,0.00,,,0.00,VWS V14.01,2013-04-30 00:18:00,
2013-04-29 17:19:00,69.2,57.4,29.72,South,191,3.0,6.0,66,0.00,,,0.00,VWS V14.01,2013-04-30 00:19:00,
2013-04-29 17:20:00,69.1,57.3,29.72,SW,235,6.0,8.0,66,0.00,,,0.00,VWS V14.01,2013-04-30 00:20:00,
2013-04-29 17:23:00,68.6,57.2,29.72,SW,232,6.0,6.0,67,0.00,,,0.00,VWS V14.01,2013-04-30 00:23:00,
2013-04-29 17:25:00,68.5,57.5,29.72,South,176,2.0,6.0,68,0.00,,,0.00,VWS V14.01,2013-04-30 00:25:00,
2013-04-29 17:26:00,68.5,57.5,29.72,South,177,4.0,6.0,68,0.00,,,0.00,VWS V14.01,2013-04-30 00:26:00,
2013-04-29 17:29:00,68.8,57.8,29.72,South,180,3.0,3.0,68,0.00,,,0.00,VWS V14.01,2013-04-30 00:29:00,
2013-04-29 17:31:00,68.9,57.5,29.72,SE,125,3.0,5.0,67,0.00,,,0.00,VWS V14.01,2013-04-30 00:31:00,
2013-04-29 17:32:00,68.8,57.4,29.72,SSE,155,3.0,8.0,67,0.00,,,0.00,VWS V14.01,2013-04-30 00:32:00,
2013-04-29 17:34:00,68.4,57.0,29.72,South,174,3.0,4.0,67,0.00,,,0.00,VWS V14.01,2013-04-30 00:34:00,
2013-04-29 17:37:00,68.4,57.8,29.72,SSW,203,2.0,3.0,69,0.00,,,0.00,VWS V14.01,2013-04-30 00:37:00,
2013-04-29 17:38:00,68.5,57.9,29.72,SSE,160,5.0,5.0,69,0.00,,,0.00,VWS V14.01,2013-04-30 00:38:00,
2013-04-29 17:41:00,68.5,57.5,29.72,South,188,4.0,4.0,68,0.00,,,0.00,VWS V14.01,2013-04-30 00:41:00,
2013-04-29 17:43:00,68.4,57.4,29.72,SSW,200,3.0,5.0,68,0.00,,,0.00,VWS V14.01,2013-04-30 00:43:00,
2013-04-29 17:45:00,68.3,57.3,29.72,SSE,160,5.0,5.0,68,0.00,,,0.00,VWS V14.01,2013-04-30 00:45:00,
2013-04-29 17:46:00,68.2,57.2,29.72,SSE,159,4.0,5.0,68,0.00,,,0.00,VWS V14.01,2013-04-30 00:46:00,
2013-04-29 17:48:00,68.0,57.1,29.72,SW,214,5.0,7.0,68,0.00,,,0.00,VWS V14.01,2013-04-30 00:48:00,
2013-04-29 17:51:00,67.8,57.3,29.72,SSW,197,6.0,6.0,69,0.00,,,0.00,VWS V14.01,2013-04-30 00:51:00,
2013-04-29 17:52:00,67.8,57.3,29.72,SE,124,5.0,6.0,69,0.00,,,0.00,VWS V14.01,2013-04-30 00:52:00,
2013-04-29 17:54:00,67.7,57.2,29.72,SSW,203,3.0,6.0,69,0.00,,,0.00,VWS V14.01,2013-04-30 00:54:00,
2013-04-29 17:55:00,67.7,57.2,29.72,SW,224,2.0,6.0,69,0.00,,,0.00,VWS V14.01,2013-04-30 00:55:00,
2013-04-29 17:57:00,67.9,57.4,29.72,SW,236,2.0,5.0,69,0.00,,,0.00,VWS V14.01,2013-04-30 00:57:00,
2013-04-29 17:59:00,67.7,57.2,29.72,WSW,253,3.0,6.0,69,0.00,,,0.00,VWS V14.01,2013-04-30 00:59:00,
2013-04-29 18:00:00,67.5,57.0,29.72,SSW,193,5.0,6.0,69,0.00,,,0.00,VWS V14.01,2013-04-30 01:00:00,
2013-04-29 18:01:00,67.4,56.9,29.72,SSW,211,5.0,6.0,69,0.00,,,0.00,VWS V14.01,2013-04-30 01:01:00,
2013-04-29 18:03:00,67.1,57.0,29.71,SW,229,5.0,5.0,70,0.00,,,0.00,VWS V14.01,2013-04-30 01:03:00,
2013-04-29 18:05:00,66.9,56.8,29.71,ESE,118,5.0,5.0,70,0.00,,,0.00,VWS V14.01,2013-04-30 01:05:00,
2013-04-29 18:06:00,66.8,56.7,29.71,SSE,165,6.0,6.0,70,0.00,,,0.00,VWS V14.01,2013-04-30 01:06:00,
2013-04-29 18:09:00,66.5,56.8,29.72,SW,229,5.0,6.0,71,0.00,,,0.00,VWS V14.01,2013-04-30 01:09:00,
2013-04-29 18:11:00,66.3,56.6,29.72,SW,217,2.0,3.0,71,0.00,,,0.00,VWS V14.01,2013-04-30 01:11:00,
2013-04-29 18:12:00,66.3,57.0,29.71,SSE,153,3.0,4.0,72,0.00,,,0.00,VWS V14.01,2013-04-30 01:12:00,
2013-04-29 18:13:00,66.3,57.0,29.71,SSE,148,5.0,5.0,72,0.00,,,0.00,VWS V14.01,2013-04-30 01:13:00,
2013-04-29 18:15:00,66.2,56.9,29.72,SW,215,1.0,4.0,72,0.00,,,0.00,VWS V14.01,2013-04-30 01:15:00,
2013-04-29 18:16:00,66.2,56.9,29.72,SSW,212,1.0,5.0,72,0.00,,,0.00,VWS V14.01,2013-04-30 01:16:00,
2013-04-29 18:18:00,66.1,56.8,29.72,SE,141,2.0,4.0,72,0.00,,,0.00,VWS V14.01,2013-04-30 01:18:00,
2013-04-29 18:19:00,66.0,56.7,29.72,SSW,202,3.0,3.0,72,0.00,,,0.00,VWS V14.01,2013-04-30 01:19:00,
2013-04-29 18:20:00,66.1,56.8,29.72,SE,125,2.0,3.0,72,0.00,,,0.00,VWS V14.01,2013-04-30 01:20:00,
2013-04-29 18:22:00,66.0,56.3,29.72,SW,222,6.0,8.0,71,0.00,,,0.00,VWS V14.01,2013-04-30 01:22:00,
2013-04-29 18:25:00,65.6,56.3,29.72,SW,228,5.0,6.0,72,0.00,,,0.00,VWS V14.01,2013-04-30 01:25:00,
2013-04-29 18:26:00,65.4,56.2,29.72,SW,218,2.0,6.0,72,0.00,,,0.00,VWS V14.01,2013-04-30 01:26:00,
2013-04-29 18:30:00,65.1,56.2,29.72,SW,233,3.0,5.0,73,0.00,,,0.00,VWS V14.01,2013-04-30 01:30:00,
2013-04-29 18:31:00,65.0,56.2,29.72,WSW,238,6.0,7.0,73,0.00,,,0.00,VWS V14.01,2013-04-30 01:31:00,
2013-04-29 18:32:00,64.9,56.0,29.72,SSW,193,2.0,6.0,73,0.00,,,0.00,VWS V14.01,2013-04-30 01:32:00,
2013-04-29 18:35:00,64.5,56.0,29.72,SSW,201,7.0,7.0,74,0.00,,,0.00,VWS V14.01,2013-04-30 01:35:00,
2013-04-29 18:37:00,63.9,55.5,29.72,WSW,241,4.0,4.0,74,0.00,,,0.00,VWS V14.01,2013-04-30 01:37:00,
2013-04-29 18:38:00,63.7,55.6,29.72,SSW,207,6.0,6.0,75,0.00,,,0.00,VWS V14.01,2013-04-30 01:38:00,
2013-04-29 18:40:00,63.4,55.7,29.72,SW,229,10.0,10.0,76,0.00,,,0.00,VWS V14.01,2013-04-30 01:40:00,
2013-04-29 18:43:00,62.8,55.5,29.72,SW,225,2.0,3.0,77,0.00,,,0.00,VWS V14.01,2013-04-30 01:43:00,
2013-04-29 18:44:00,62.7,55.4,29.72,SE,132,2.0,5.0,77,0.00,,,0.00,VWS V14.01,2013-04-30 01:44:00,
2013-04-29 18:45:00,62.6,55.7,29.72,South,184,4.0,5.0,78,0.00,,,0.00,VWS V14.01,2013-04-30 01:45:00,
2013-04-29 18:46:00,62.6,55.7,29.72,SW,217,5.0,5.0,78,0.00,,,0.00,VWS V14.01,2013-04-30 01:46:00,
2013-04-29 18:49:00,62.4,55.5,29.72,SSW,195,3.0,6.0,78,0.00,,,0.00,VWS V14.01,2013-04-30 01:49:00,
2013-04-29 18:50:00,62.3,55.7,29.72,SSW,205,4.0,5.0,79,0.00,,,0.00,VWS V14.01,2013-04-30 01:50:00,
2013-04-29 18:52:00,62.1,55.2,29.72,SW,231,2.0,3.0,78,0.00,,,0.00,VWS V14.01,2013-04-30 01:52:00,
2013-04-29 18:54:00,62.0,55.4,29.72,WSW,241,2.0,5.0,79,0.00,,,0.00,VWS V14.01,2013-04-30 01:54:00,
2013-04-29 18:56:00,61.8,55.2,29.72,SSW,203,4.0,5.0,79,0.00,,,0.00,VWS V14.01,2013-04-30 01:56:00,
2013-04-29 18:57:00,61.7,55.1,29.72,WSW,243,4.0,4.0,79,0.00,,,0.00,VWS V14.01,2013-04-30 01:57:00,
2013-04-29 18:58:00,61.6,55.0,29.72,SW,221,4.0,4.0,79,0.00,,,0.00,VWS V14.01,2013-04-30 01:58:00,
2013-04-29 19:01:00,61.4,55.2,29.72,SSW,207,4.0,5.0,80,0.00,,,0.00,VWS V14.01,2013-04-30 02:01:00,
2013-04-29 19:02:00,61.3,55.1,29.72,South,190,7.0,7.0,80,0.00,,,0.00,VWS V14.01,2013-04-30 02:02:00,
2013-04-29 19:03:00,61.2,55.0,29.72,South,188,4.0,8.0,80,0.00,,,0.00,VWS V14.01,2013-04-30 02:03:00,
2013-04-29 19:04:00,61.1,54.9,29.72,SSW,201,3.0,3.0,80,0.00,,,0.00,VWS V14.01,2013-04-30 02:04:00,
2013-04-29 19:06:00,61.0,55.1,29.73,SW,214,3.0,6.0,81,0.00,,,0.00,VWS V14.01,2013-04-30 02:06:00,
2013-04-29 19:07:00,60.9,55.0,29.73,SW,229,3.0,3.0,81,0.00,,,0.00,VWS V14.01,2013-04-30 02:07:00,
2013-04-29 19:08:00,60.7,54.8,29.72,SW,232,3.0,5.0,81,0.00,,,0.00,VWS V14.01,2013-04-30 02:08:00,
2013-04-29 19:09:00,60.6,54.8,29.73,SSW,201,2.0,5.0,81,0.00,,,0.00,VWS V14.01,2013-04-30 02:09:00,
2013-04-29 19:12:00,60.5,55.0,29.73,SSW,205,3.0,6.0,82,0.00,,,0.00,VWS V14.01,2013-04-30 02:12:00,
2013-04-29 19:13:00,60.5,55.0,29.73,SW,222,3.0,5.0,82,0.00,,,0.00,VWS V14.01,2013-04-30 02:13:00,
2013-04-29 19:14:00,60.4,54.9,29.73,SW,221,5.0,6.0,82,0.00,,,0.00,VWS V14.01,2013-04-30 02:14:00,
2013-04-29 19:16:00,60.2,54.7,29.73,SW,232,4.0,5.0,82,0.00,,,0.00,VWS V14.01,2013-04-30 02:16:00,
2013-04-29 19:17:00,60.1,54.6,29.73,SW,217,5.0,5.0,82,0.00,,,0.00,VWS V14.01,2013-04-30 02:17:00,
2013-04-29 19:18:00,60.0,54.5,29.73,SW,233,6.0,6.0,82,0.00,,,0.00,VWS V14.01,2013-04-30 02:18:00,
2013-04-29 19:20:00,59.9,54.7,29.73,SSE,160,4.0,4.0,83,0.00,,,0.00,VWS V14.01,2013-04-30 02:20:00,
2013-04-29 19:21:00,59.8,54.6,29.73,West,273,3.0,7.0,83,0.00,,,0.00,VWS V14.01,2013-04-30 02:21:00,
2013-04-29 19:23:00,59.6,54.4,29.73,SSW,201,4.0,4.0,83,0.00,,,0.00,VWS V14.01,2013-04-30 02:23:00,
2013-04-29 19:24:00,59.5,54.3,29.74,SSE,167,4.0,5.0,83,0.00,,,0.00,VWS V14.01,2013-04-30 02:24:00,
2013-04-29 19:25:00,59.5,54.3,29.74,SSW,194,3.0,4.0,83,0.00,,,0.00,VWS V14.01,2013-04-30 02:25:00,
2013-04-29 19:26:00,59.5,54.7,29.74,SSE,151,4.0,4.0,84,0.00,,,0.00,VWS V14.01,2013-04-30 02:26:00,
2013-04-29 19:28:00,59.3,54.5,29.74,SSW,205,2.0,5.0,84,0.00,,,0.00,VWS V14.01,2013-04-30 02:28:00,
2013-04-29 19:30:00,59.2,54.4,29.74,WSW,242,1.0,3.0,84,0.00,,,0.00,VWS V14.01,2013-04-30 02:30:00,
2013-04-29 19:31:00,59.1,54.3,29.74,SSE,165,3.0,3.0,84,0.00,,,0.00,VWS V14.01,2013-04-30 02:31:00,
2013-04-29 19:32:00,59.1,54.3,29.74,SSW,198,4.0,6.0,84,0.00,,,0.00,VWS V14.01,2013-04-30 02:32:00,
2013-04-29 19:33:00,59.1,54.3,29.74,SW,222,5.0,5.0,84,0.00,,,0.00,VWS V14.01,2013-04-30 02:33:00,
2013-04-29 19:34:00,59.0,54.2,29.74,South,179,5.0,5.0,84,0.00,,,0.00,VWS V14.01,2013-04-30 02:34:00,
2013-04-29 19:37:00,58.8,54.3,29.74,SSE,165,3.0,5.0,85,0.00,,,0.00,VWS V14.01,2013-04-30 02:37:00,
2013-04-29 19:38:00,58.8,54.3,29.74,SE,145,3.0,3.0,85,0.00,,,0.00,VWS V14.01,2013-04-30 02:38:00,
2013-04-29 19:39:00,58.7,54.2,29.74,SSW,207,2.0,5.0,85,0.00,,,0.00,VWS V14.01,2013-04-30 02:39:00,
2013-04-29 19:40:00,58.7,54.2,29.74,WSW,240,1.0,1.0,85,0.00,,,0.00,VWS V14.01,2013-04-30 02:40:00,
2013-04-29 19:43:00,58.6,54.1,29.74,SW,221,9.0,9.0,85,0.00,,,0.00,VWS V14.01,2013-04-30 02:43:00,
2013-04-29 19:44:00,58.5,54.0,29.74,SW,219,4.0,4.0,85,0.00,,,0.00,VWS V14.01,2013-04-30 02:44:00,
2013-04-29 19:46:00,58.4,54.2,29.74,SSW,211,2.0,5.0,86,0.00,,,0.00,VWS V14.01,2013-04-30 02:46:00,
2013-04-29 19:49:00,58.3,54.1,29.74,WSW,238,3.0,3.0,86,0.00,,,0.00,VWS V14.01,2013-04-30 02:49:00,
2013-04-29 19:50:00,58.3,54.1,29.74,SW,221,1.0,3.0,86,0.00,,,0.00,VWS V14.01,2013-04-30 02:50:00,
2013-04-29 19:51:00,58.3,54.1,29.74,SW,233,2.0,2.0,86,0.00,,,0.00,VWS V14.01,2013-04-30 02:51:00,
2013-04-29 19:53:00,58.3,54.1,29.74,WSW,238,1.0,3.0,86,0.00,,,0.00,VWS V14.01,2013-04-30 02:53:00,
2013-04-29 19:54:00,58.3,54.1,29.74,SSW,193,3.0,3.0,86,0.00,,,0.00,VWS V14.01,2013-04-30 02:54:00,
2013-04-29 19:55:00,58.3,54.1,29.74,SE,143,3.0,4.0,86,0.00,,,0.00,VWS V14.01,2013-04-30 02:55:00,
2013-04-29 19:56:00,58.3,54.1,29.74,SSW,197,2.0,3.0,86,0.00,,,0.00,VWS V14.01,2013-04-30 02:56:00,
2013-04-29 19:57:00,58.2,54.0,29.75,SSW,197,2.0,3.0,86,0.00,,,0.00,VWS V14.01,2013-04-30 02:57:00,
2013-04-29 19:58:00,58.2,54.0,29.75,South,187,0.0,0.0,86,0.00,,,0.00,VWS V14.01,2013-04-30 02:58:00,
2013-04-29 20:02:00,58.2,54.4,29.75,SE,131,1.0,3.0,87,0.00,,,0.00,VWS V14.01,2013-04-30 03:02:00,
2013-04-29 20:03:00,58.2,54.0,29.75,SSW,203,4.0,4.0,86,0.00,,,0.00,VWS V14.01,2013-04-30 03:03:00,
2013-04-29 20:04:00,58.2,54.0,29.75,WSW,247,0.0,0.0,86,0.00,,,0.00,VWS V14.01,2013-04-30 03:04:00,
2013-04-29 20:07:00,58.2,54.4,29.75,SE,141,2.0,3.0,87,0.00,,,0.00,VWS V14.01,2013-04-30 03:07:00,
2013-04-29 20:08:00,58.2,54.4,29.75,South,187,2.0,3.0,87,0.00,,,0.00,VWS V14.01,2013-04-30 03:08:00,
2013-04-29 20:11:00,58.2,54.4,29.75,SSE,152,3.0,4.0,87,0.00,,,0.00,VWS V14.01,2013-04-30 03:11:00,
2013-04-29 20:14:00,58.1,54.3,29.75,SE,131,3.0,3.0,87,0.00,,,0.00,VWS V14.01,2013-04-30 03:14:00,
2013-04-29 20:16:00,58.2,54.4,29.75,SE,127,4.0,6.0,87,0.00,,,0.00,VWS V14.01,2013-04-30 03:16:00,
2013-04-29 20:17:00,58.1,54.3,29.75,SE,141,4.0,5.0,87,0.00,,,0.00,VWS V14.01,2013-04-30 03:17:00,
2013-04-29 20:19:00,58.1,54.3,29.75,SE,141,3.0,6.0,87,0.00,,,0.00,VWS V14.01,2013-04-30 03:19:00,
2013-04-29 20:22:00,58.1,54.3,29.75,South,188,2.0,4.0,87,0.00,,,0.00,VWS V14.01,2013-04-30 03:22:00,
2013-04-29 20:23:00,58.1,54.3,29.75,SSE,166,4.0,5.0,87,0.00,,,0.00,VWS V14.01,2013-04-30 03:23:00,
2013-04-29 20:24:00,58.1,54.3,29.75,SSW,212,4.0,5.0,87,0.00,,,0.00,VWS V14.01,2013-04-30 03:24:00,
2013-04-29 20:26:00,58.1,54.3,29.75,South,176,2.0,3.0,87,0.00,,,0.00,VWS V14.01,2013-04-30 03:26:00,
2013-04-29 20:31:00,58.2,54.4,29.76,SSW,198,3.0,4.0,87,0.00,,,0.00,VWS V14.01,2013-04-30 03:31:00,
2013-04-29 20:32:00,58.2,54.4,29.76,SSW,204,1.0,4.0,87,0.00,,,0.00,VWS V14.01,2013-04-30 03:32:00,
2013-04-29 20:33:00,58.2,54.4,29.76,SSW,201,2.0,4.0,87,0.00,,,0.00,VWS V14.01,2013-04-30 03:33:00,
2013-04-29 20:34:00,58.2,54.4,29.76,SE,124,5.0,5.0,87,0.00,,,0.00,VWS V14.01,2013-04-30 03:34:00,
2013-04-29 20:36:00,58.2,54.4,29.76,SSE,155,3.0,4.0,87,0.00,,,0.00,VWS V14.01,2013-04-30 03:36:00,
2013-04-29 20:37:00,58.2,54.4,29.76,South,174,3.0,4.0,87,0.00,,,0.00,VWS V14.01,2013-04-30 03:37:00,
2013-04-29 20:39:00,58.2,54.7,29.76,WSW,250,3.0,3.0,88,0.00,,,0.00,VWS V14.01,2013-04-30 03:39:00,
2013-04-29 20:41:00,58.3,54.8,29.76,SW,236,3.0,3.0,88,0.00,,,0.00,VWS V14.01,2013-04-30 03:41:00,
2013-04-29 20:42:00,58.3,54.5,29.76,WSW,238,5.0,5.0,87,0.00,,,0.00,VWS V14.01,2013-04-30 03:42:00,
2013-04-29 20:43:00,58.2,54.4,29.76,SSW,195,5.0,5.0,87,0.00,,,0.00,VWS V14.01,2013-04-30 03:43:00,
2013-04-29 20:45:00,58.2,54.4,29.76,SSW,193,1.0,4.0,87,0.00,,,0.00,VWS V14.01,2013-04-30 03:45:00,
2013-04-29 20:48:00,58.3,54.8,29.76,SW,217,4.0,4.0,88,0.00,,,0.00,VWS V14.01,2013-04-30 03:48:00,
2013-04-29 20:49:00,58.3,54.8,29.76,SE,133,3.0,4.0,88,0.00,,,0.00,VWS V14.01,2013-04-30 03:49:00,
2013-04-29 20:50:00,58.3,54.8,29.76,SE,132,4.0,7.0,88,0.00,,,0.00,VWS V14.01,2013-04-30 03:50:00,
2013-04-29 20:52:00,58.4,54.9,29.76,SSW,205,1.0,4.0,88,0.00,,,0.00,VWS V14.01,2013-04-30 03:52:00,
2013-04-29 20:53:00,58.4,54.9,29.76,SE,135,1.0,1.0,88,0.00,,,0.00,VWS V14.01,2013-04-30 03:53:00,
2013-04-29 20:55:00,58.4,54.5,29.76,SE,127,1.0,5.0,87,0.00,,,0.00,VWS V14.01,2013-04-30 03:55:00,
2013-04-29 20:59:00,58.4,54.9,29.76,SE,138,0.0,1.0,88,0.00,,,0.00,VWS V14.01,2013-04-30 03:59:00,
2013-04-29 21:00:00,58.5,55.0,29.77,ESE,121,3.0,3.0,88,0.00,,,0.00,VWS V14.01,2013-04-30 04:00:00,
2013-04-29 21:01:00,58.5,54.7,29.77,SSE,160,3.0,4.0,87,0.00,,,0.00,VWS V14.01,2013-04-30 04:01:00,
2013-04-29 21:02:00,58.4,54.5,29.77,SSW,194,4.0,5.0,87,0.00,,,0.00,VWS V14.01,2013-04-30 04:02:00,
2013-04-29 21:03:00,58.5,54.7,29.77,SSW,208,2.0,4.0,87,0.00,,,0.00,VWS V14.01,2013-04-30 04:03:00,
2013-04-29 21:07:00,58.4,54.5,29.77,SE,139,1.0,2.0,87,0.00,,,0.00,VWS V14.01,2013-04-30 04:07:00,
2013-04-29 21:08:00,58.4,54.5,29.77,ESE,118,2.0,3.0,87,0.00,,,0.00,VWS V14.01,2013-04-30 04:08:00,
2013-04-29 21:09:00,58.4,54.9,29.77,SE,145,4.0,4.0,88,0.00,,,0.00,VWS V14.01,2013-04-30 04:09:00,
2013-04-29 21:12:00,58.3,54.8,29.77,SE,141,2.0,3.0,88,0.00,,,0.00,VWS V14.01,2013-04-30 04:12:00,
2013-04-29 21:14:00,58.3,54.8,29.77,SE,131,0.0,3.0,88,0.00,,,0.00,VWS V14.01,2013-04-30 04:14:00,
2013-04-29 21:15:00,58.4,54.9,29.77,SE,128,1.0,1.0,88,0.00,,,0.00,VWS V14.01,2013-04-30 04:15:00,
2013-04-29 21:16:00,58.4,54.9,29.77,SE,129,3.0,4.0,88,0.00,,,0.00,VWS V14.01,2013-04-30 04:16:00,
2013-04-29 21:19:00,58.4,54.9,29.77,SE,134,3.0,4.0,88,0.00,,,0.00,VWS V14.01,2013-04-30 04:19:00,
2013-04-29 21:20:00,58.4,54.9,29.77,ESE,110,2.0,5.0,88,0.00,,,0.00,VWS V14.01,2013-04-30 04:20:00,
2013-04-29 21:21:00,58.4,54.9,29.77,SE,136,4.0,4.0,88,0.00,,,0.00,VWS V14.01,2013-04-30 04:21:00,
2013-04-29 21:24:00,58.4,54.9,29.77,SSE,152,3.0,3.0,88,0.00,,,0.00,VWS V14.01,2013-04-30 04:24:00,
2013-04-29 21:26:00,58.4,54.9,29.77,SE,139,2.0,3.0,88,0.00,,,0.00,VWS V14.01,2013-04-30 04:26:00,
2013-04-29 21:27:00,58.4,54.9,29.77,SE,127,1.0,2.0,88,0.00,,,0.00,VWS V14.01,2013-04-30 04:27:00,
2013-04-29 21:29:00,58.5,55.0,29.77,SE,143,3.0,5.0,88,0.00,,,0.00,VWS V14.01,2013-04-30 04:29:00,
2013-04-29 21:30:00,58.5,55.0,29.77,SSE,149,3.0,3.0,88,0.00,,,0.00,VWS V14.01,2013-04-30 04:30:00,
2013-04-29 21:31:00,58.5,55.0,29.77,SE,143,1.0,1.0,88,0.00,,,0.00,VWS V14.01,2013-04-30 04:31:00,
2013-04-29 21:32:00,58.5,55.0,29.77,SE,146,3.0,4.0,88,0.00,,,0.00,VWS V14.01,2013-04-30 04:32:00,
2013-04-29 21:36:00,58.5,55.0,29.77,SE,145,1.0,2.0,88,0.00,,,0.00,VWS V14.01,2013-04-30 04:36:00,
2013-04-29 21:37:00,58.5,55.0,29.78,SSE,155,2.0,4.0,88,0.00,,,0.00,VWS V14.01,2013-04-30 04:37:00,
2013-04-29 21:39:00,58.5,55.0,29.78,SE,129,1.0,5.0,88,0.00,,,0.00,VWS V14.01,2013-04-30 04:39:00,
2013-04-29 21:41:00,58.4,54.9,29.78,SE,141,1.0,4.0,88,0.00,,,0.00,VWS V14.01,2013-04-30 04:41:00,
2013-04-29 21:42:00,58.4,54.9,29.78,SSE,159,2.0,2.0,88,0.00,,,0.00,VWS V14.01,2013-04-30 04:42:00,
2013-04-29 21:44:00,58.4,54.9,29.78,SSW,198,2.0,4.0,88,0.00,,,0.00,VWS V14.01,2013-04-30 04:44:00,
2013-04-29 21:45:00,58.4,54.9,29.78,SE,136,3.0,4.0,88,0.00,,,0.00,VWS V14.01,2013-04-30 04:45:00,
2013-04-29 21:46:00,58.4,54.9,29.78,SSE,165,4.0,5.0,88,0.00,,,0.00,VWS V14.01,2013-04-30 04:46:00,
2013-04-29 21:47:00,58.4,54.9,29.78,SW,230,3.0,5.0,88,0.00,,,0.00,VWS V14.01,2013-04-30 04:47:00,
2013-04-29 21:49:00,58.3,54.8,29.78,SSW,194,3.0,4.0,88,0.00,,,0.00,VWS V14.01,2013-04-30 04:49:00,
2013-04-29 21:51:00,58.3,54.8,29.78,SSE,159,1.0,3.0,88,0.00,,,0.00,VWS V14.01,2013-04-30 04:51:00,
2013-04-29 21:53:00,58.2,54.7,29.78,ESE,121,3.0,4.0,88,0.00,,,0.00,VWS V14.01,2013-04-30 04:53:00,
2013-04-29 21:54:00,58.2,54.7,29.78,SE,139,3.0,7.0,88,0.00,,,0.00,VWS V14.01,2013-04-30 04:54:00,
2013-04-29 21:55:00,58.1,54.6,29.78,SE,134,3.0,5.0,88,0.00,,,0.00,VWS V14.01,2013-04-30 04:55:00,
2013-04-29 21:58:00,57.9,54.4,29.78,ESE,107,4.0,4.0,88,0.00,,,0.00,VWS V14.01,2013-04-30 04:58:00,
2013-04-29 22:00:00,57.9,54.4,29.78,East,98,3.0,4.0,88,0.00,,,0.00,VWS V14.01,2013-04-30 05:00:00,
2013-04-29 22:01:00,57.9,54.4,29.78,SE,127,5.0,5.0,88,0.00,,,0.00,VWS V14.01,2013-04-30 05:01:00,
2013-04-29 22:03:00,57.9,54.4,29.78,SE,141,1.0,4.0,88,0.00,,,0.00,VWS V14.01,2013-04-30 05:03:00,
2013-04-29 22:05:00,57.9,54.4,29.78,SE,131,5.0,6.0,88,0.00,,,0.00,VWS V14.01,2013-04-30 05:05:00,
2013-04-29 22:06:00,57.9,54.4,29.78,East,94,2.0,6.0,88,0.00,,,0.00,VWS V14.01,2013-04-30 05:06:00,
2013-04-29 22:07:00,57.8,54.3,29.78,SE,125,3.0,5.0,88,0.00,,,0.00,VWS V14.01,2013-04-30 05:07:00,
2013-04-29 22:10:00,57.9,54.7,29.78,SSE,153,2.0,4.0,89,0.00,,,0.00,VWS V14.01,2013-04-30 05:10:00,
2013-04-29 22:12:00,57.9,54.7,29.78,South,191,3.0,5.0,89,0.00,,,0.00,VWS V14.01,2013-04-30 05:12:00,
2013-04-29 22:13:00,57.9,54.7,29.78,SSW,198,3.0,4.0,89,0.00,,,0.00,VWS V14.01,2013-04-30 05:13:00,
2013-04-29 22:14:00,57.9,54.7,29.78,SW,229,3.0,5.0,89,0.00,,,0.00,VWS V14.01,2013-04-30 05:14:00,
2013-04-29 22:15:00,57.9,54.4,29.78,SE,138,5.0,5.0,88,0.00,,,0.00,VWS V14.01,2013-04-30 05:15:00,
2013-04-29 22:19:00,57.9,54.4,29.78,South,177,4.0,4.0,88,0.00,,,0.00,VWS V14.01,2013-04-30 05:19:00,
2013-04-29 22:21:00,57.9,54.4,29.78,SE,142,5.0,5.0,88,0.00,,,0.00,VWS V14.01,2013-04-30 05:21:00,
2013-04-29 22:24:00,57.9,54.4,29.78,ESE,119,4.0,4.0,88,0.00,,,0.00,VWS V14.01,2013-04-30 05:24:00,
2013-04-29 22:26:00,57.9,54.4,29.78,ESE,110,2.0,4.0,88,0.00,,,0.00,VWS V14.01,2013-04-30 05:26:00,
2013-04-29 22:27:00,57.9,54.4,29.78,SE,131,4.0,6.0,88,0.00,,,0.00,VWS V14.01,2013-04-30 05:27:00,
2013-04-29 22:28:00,57.9,54.4,29.78,SE,134,5.0,7.0,88,0.00,,,0.00,VWS V14.01,2013-04-30 05:28:00,
2013-04-29 22:31:00,57.9,54.4,29.78,ENE,68,5.0,8.0,88,0.00,,,0.00,VWS V14.01,2013-04-30 05:31:00,
2013-04-29 22:32:00,57.9,54.4,29.78,SSW,204,0.0,5.0,88,0.00,,,0.00,VWS V14.01,2013-04-30 05:32:00,
2013-04-29 22:33:00,57.9,54.4,29.78,SE,136,3.0,3.0,88,0.00,,,0.00,VWS V14.01,2013-04-30 05:33:00,
2013-04-29 22:34:00,57.9,54.4,29.78,South,176,3.0,4.0,88,0.00,,,0.00,VWS V14.01,2013-04-30 05:34:00,
2013-04-29 22:38:00,57.9,54.4,29.78,ESE,121,2.0,5.0,88,0.00,,,0.00,VWS V14.01,2013-04-30 05:38:00,
2013-04-29 22:39:00,57.8,54.3,29.78,ENE,77,5.0,6.0,88,0.00,,,0.00,VWS V14.01,2013-04-30 05:39:00,
2013-04-29 22:40:00,57.8,54.3,29.78,SE,143,3.0,5.0,88,0.00,,,0.00,VWS V14.01,2013-04-30 05:40:00,
2013-04-29 22:42:00,57.8,54.3,29.78,SE,127,5.0,8.0,88,0.00,,,0.00,VWS V14.01,2013-04-30 05:42:00,
2013-04-29 22:43:00,57.8,54.3,29.78,East,89,5.0,6.0,88,0.00,,,0.00,VWS V14.01,2013-04-30 05:43:00,
2013-04-29 22:47:00,57.6,54.1,29.79,SSW,208,1.0,3.0,88,0.00,,,0.00,VWS V14.01,2013-04-30 05:47:00,
2013-04-29 22:48:00,57.7,54.2,29.79,SSW,205,0.0,2.0,88,0.00,,,0.00,VWS V14.01,2013-04-30 05:48:00,
2013-04-29 22:50:00,57.7,54.2,29.79,SE,134,3.0,4.0,88,0.00,,,0.00,VWS V14.01,2013-04-30 05:50:00,
2013-04-29 22:51:00,57.7,54.2,29.79,SE,131,5.0,7.0,88,0.00,,,0.00,VWS V14.01,2013-04-30 05:51:00,
2013-04-29 22:52:00,57.7,54.2,29.79,South,172,2.0,4.0,88,0.00,,,0.00,VWS V14.01,2013-04-30 05:52:00,
2013-04-29 22:53:00,57.7,54.2,29.79,SSE,158,2.0,5.0,88,0.00,,,0.00,VWS V14.01,2013-04-30 05:53:00,
2013-04-29 22:54:00,57.7,54.2,29.79,SE,131,3.0,8.0,88,0.00,,,0.00,VWS V14.01,2013-04-30 05:54:00,
2013-04-29 22:57:00,57.6,54.1,29.79,SE,145,7.0,9.0,88,0.00,,,0.00,VWS V14.01,2013-04-30 05:57:00,
2013-04-29 22:58:00,57.6,53.8,29.78,ESE,117,2.0,7.0,87,0.00,,,0.00,VWS V14.01,2013-04-30 05:58:00,
2013-04-29 22:59:00,57.6,53.8,29.79,SSE,147,2.0,6.0,87,0.00,,,0.00,VWS V14.01,2013-04-30 05:59:00,
2013-04-29 23:00:00,57.6,54.1,29.79,SE,139,4.0,4.0,88,0.00,,,0.00,VWS V14.01,2013-04-30 06:00:00,
2013-04-29 23:03:00,57.4,53.9,29.79,SE,129,5.0,5.0,88,0.00,,,0.00,VWS V14.01,2013-04-30 06:03:00,
2013-04-29 23:04:00,57.4,53.9,29.79,ESE,103,7.0,7.0,88,0.00,,,0.00,VWS V14.01,2013-04-30 06:04:00,
2013-04-29 23:05:00,57.4,53.9,29.79,SE,143,2.0,9.0,88,0.00,,,0.00,VWS V14.01,2013-04-30 06:05:00,
2013-04-29 23:07:00,57.3,53.8,29.79,East,101,3.0,7.0,88,0.00,,,0.00,VWS V14.01,2013-04-30 06:07:00,
2013-04-29 23:08:00,57.3,53.8,29.79,ESE,122,6.0,6.0,88,0.00,,,0.00,VWS V14.01,2013-04-30 06:08:00,
2013-04-29 23:09:00,57.3,53.8,29.79,SSW,211,7.0,9.0,88,0.00,,,0.00,VWS V14.01,2013-04-30 06:09:00,
2013-04-29 23:10:00,57.3,53.8,29.79,East,96,5.0,9.0,88,0.00,,,0.00,VWS V14.01,2013-04-30 06:10:00,
2013-04-29 23:12:00,57.3,53.8,29.78,South,186,2.0,7.0,88,0.00,,,0.00,VWS V14.01,2013-04-30 06:12:00,
2013-04-29 23:13:00,57.3,53.8,29.79,NE,55,3.0,4.0,88,0.00,,,0.00,VWS V14.01,2013-04-30 06:13:00,
2013-04-29 23:14:00,57.4,53.9,29.79,SE,127,2.0,5.0,88,0.00,,,0.00,VWS V14.01,2013-04-30 06:14:00,
2013-04-29 23:15:00,57.3,53.8,29.79,ESE,107,3.0,3.0,88,0.00,,,0.00,VWS V14.01,2013-04-30 06:15:00,
2013-04-29 23:17:00,57.4,53.9,29.79,East,98,5.0,7.0,88,0.00,,,0.00,VWS V14.01,2013-04-30 06:17:00,
2013-04-29 23:18:00,57.4,53.9,29.79,SE,131,5.0,8.0,88,0.00,,,0.00,VWS V14.01,2013-04-30 06:18:00,
2013-04-29 23:21:00,57.3,53.8,29.79,ESE,103,2.0,5.0,88,0.00,,,0.00,VWS V14.01,2013-04-30 06:21:00,
2013-04-29 23:22:00,57.4,53.9,29.79,East,89,4.0,6.0,88,0.00,,,0.00,VWS V14.01,2013-04-30 06:22:00,
2013-04-29 23:23:00,57.4,53.9,29.79,ENE,70,4.0,5.0,88,0.00,,,0.00,VWS V14.01,2013-04-30 06:23:00,
2013-04-29 23:24:00,57.4,53.9,29.79,SE,141,2.0,4.0,88,0.00,,,0.00,VWS V14.01,2013-04-30 06:24:00,
2013-04-29 23:26:00,57.4,53.9,29.79,ESE,115,3.0,5.0,88,0.00,,,0.00,VWS V14.01,2013-04-30 06:26:00,
2013-04-29 23:29:00,57.4,53.9,29.78,East,98,4.0,4.0,88,0.00,,,0.00,VWS V14.01,2013-04-30 06:29:00,
2013-04-29 23:30:00,57.4,53.9,29.78,ESE,117,6.0,8.0,88,0.00,,,0.00,VWS V14.01,2013-04-30 06:30:00,
2013-04-29 23:33:00,57.5,54.0,29.78,ESE,115,1.0,4.0,88,0.00,,,0.00,VWS V14.01,2013-04-30 06:33:00,
2013-04-29 23:34:00,57.5,54.0,29.78,SE,131,3.0,4.0,88,0.00,,,0.00,VWS V14.01,2013-04-30 06:34:00,
2013-04-29 23:35:00,57.5,54.0,29.78,SSE,152,2.0,5.0,88,0.00,,,0.00,VWS V14.01,2013-04-30 06:35:00,
2013-04-29 23:38:00,57.5,54.0,29.78,ESE,117,3.0,4.0,88,0.00,,,0.00,VWS V14.01,2013-04-30 06:38:00,
2013-04-29 23:40:00,57.6,54.1,29.78,SE,145,5.0,6.0,88,0.00,,,0.00,VWS V14.01,2013-04-30 06:40:00,
2013-04-29 23:41:00,57.6,54.1,29.78,SSE,159,2.0,2.0,88,0.00,,,0.00,VWS V14.01,2013-04-30 06:41:00,
2013-04-29 23:43:00,57.6,54.1,29.78,SE,124,3.0,6.0,88,0.00,,,0.00,VWS V14.01,2013-04-30 06:43:00,
2013-04-29 23:44:00,57.6,53.8,29.78,ESE,123,3.0,7.0,87,0.00,,,0.00,VWS V14.01,2013-04-30 06:44:00,
2013-04-29 23:45:00,57.6,53.8,29.78,SSE,149,7.0,8.0,87,0.00,,,0.00,VWS V14.01,2013-04-30 06:45:00,
2013-04-29 23:47:00,57.6,53.8,29.78,East,86,5.0,5.0,87,0.00,,,0.00,VWS V14.01,2013-04-30 06:47:00,
2013-04-29 23:48:00,57.6,53.8,29.78,SE,132,3.0,4.0,87,0.00,,,0.00,VWS V14.01,2013-04-30 06:48:00,
2013-04-29 23:50:00,57.6,54.1,29.78,SSW,205,3.0,5.0,88,0.00,,,0.00,VWS V14.01,2013-04-30 06:50:00,
2013-04-29 23:51:00,57.6,54.1,29.78,East,100,3.0,4.0,88,0.00,,,0.00,VWS V14.01,2013-04-30 06:51:00,
2013-04-29 23:53:00,57.6,54.1,29.78,East,79,2.0,4.0,88,0.00,,,0.00,VWS V14.01,2013-04-30 06:53:00,
2013-04-29 23:55:00,57.7,54.2,29.78,SE,125,2.0,4.0,88,0.00,,,0.00,VWS V14.01,2013-04-30 06:55:00,
2013-04-29 23:56:00,57.7,54.2,29.78,SE,134,3.0,4.0,88,0.00,,,0.00,VWS V14.01,2013-04-30 06:56:00,
2013-04-29 23:57:00,57.7,53.9,29.78,ESE,108,1.0,3.0,87,0.00,,,0.00,VWS V14.01,2013-04-30 06:57:00,
2013-04-29 23:59:00,57.7,53.9,29.78,SE,136,3.0,3.0,87,0.00,,,0.00,VWS V14.01,2013-04-30 06:59:00,